Wetterdaten: Samstag, 01.03.2014
Datum Zeit Temp. Aussen +5cm Feuchte Auss Luftdruck Regen Sonnenschein Regendauer UV Solar Windben
01.03.2014 00:00 6,9 C 5,6 C 85 % 999,8 hPa 0,0 l/m 0 min 0 min 0,0 UV-I 0 W/m 0,0 km/h (0 Bft)
01.03.2014 00:02 6,9 C 5,6 C 85 % 999,7 hPa 0,0 l/m 0 min 0 min 0,0 UV-I 0 W/m 2,6 km/h (1 Bft)
01.03.2014 00:06 6,8 C 5,6 C 85 % 999,8 hPa 0,0 l/m 0 min 0 min 0,0 UV-I 0 W/m 5,1 km/h (1 Bft)
01.03.2014 00:08 6,8 C 5,6 C 85 % 999,8 hPa 0,0 l/m 0 min 0 min 0,0 UV-I 0 W/m 2,6 km/h (1 Bft)
01.03.2014 00:10 6,8 C 5,6 C 86 % 999,9 hPa 0,0 l/m 0 min 0 min 0,0 UV-I 0 W/m 5,1 km/h (1 Bft)
01.03.2014 00:12 6,8 C 5,0 C 86 % 999,9 hPa 0,0 l/m 0 min 0 min 0,0 UV-I 0 W/m 2,6 km/h (1 Bft)
01.03.2014 00:14 6,8 C 5,6 C 86 % 999,9 hPa 0,0 l/m 0 min 0 min 0,0 UV-I 0 W/m 10,3 km/h (2 Bft)
01.03.2014 00:16 6,8 C 5,6 C 86 % 999,8 hPa 0,0 l/m 0 min 0 min 0,0 UV-I 0 W/m 2,6 km/h (1 Bft)
01.03.2014 00:18 6,7 C 5,6 C 86 % 999,8 hPa 0,0 l/m 0 min 0 min 0,0 UV-I 0 W/m 10,3 km/h (2 Bft)
01.03.2014 00:20 6,7 C 5,6 C 86 % 999,8 hPa 0,0 l/m 0 min 0 min 0,0 UV-I 0 W/m 10,3 km/h (2 Bft)
01.03.2014 00:22 6,8 C 5,0 C 87 % 999,9 hPa 0,0 l/m 0 min 0 min 0,0 UV-I 0 W/m 0,0 km/h (0 Bft)
01.03.2014 00:24 6,7 C 5,6 C 87 % 999,9 hPa 0,0 l/m 0 min 0 min 0,0 UV-I 0 W/m 15,4 km/h (3 Bft)
01.03.2014 00:26 6,7 C 5,6 C 87 % 999,9 hPa 0,0 l/m 0 min 0 min 0,0 UV-I 0 W/m 12,9 km/h (3 Bft)
01.03.2014 00:28 6,7 C 5,6 C 87 % 999,9 hPa 0,0 l/m 0 min 0 min 0,0 UV-I 0 W/m 7,7 km/h (2 Bft)
01.03.2014 00:30 6,7 C 5,6 C 87 % 1000,0 hPa 0,0 l/m 0 min 0 min 0,0 UV-I 0 W/m 7,7 km/h (2 Bft)
01.03.2014 00:32 6,7 C 5,6 C 87 % 999,9 hPa 0,0 l/m 0 min 0 min 0,0 UV-I 0 W/m 10,3 km/h (2 Bft)
01.03.2014 00:34 6,7 C 5,6 C 87 % 1000,0 hPa 0,0 l/m 0 min 0 min 0,0 UV-I 0 W/m 7,7 km/h (2 Bft)
01.03.2014 00:36 6,8 C 5,6 C 87 % 1000,0 hPa 0,0 l/m 0 min 0 min 0,0 UV-I 0 W/m 10,3 km/h (2 Bft)
01.03.2014 00:38 6,8 C 5,6 C 87 % 1000,1 hPa 0,0 l/m 0 min 0 min 0,0 UV-I 0 W/m 7,7 km/h (2 Bft)
01.03.2014 00:40 6,8 C 5,6 C 87 % 1000,1 hPa 0,0 l/m 0 min 0 min 0,0 UV-I 0 W/m 7,7 km/h (2 Bft)
01.03.2014 00:42 6,8 C 5,6 C 87 % 1000,1 hPa 0,0 l/m 0 min 0 min 0,0 UV-I 0 W/m 7,7 km/h (2 Bft)
01.03.2014 00:44 6,8 C 5,6 C 87 % 1000,1 hPa 0,0 l/m 0 min 0 min 0,0 UV-I 0 W/m 2,6 km/h (1 Bft)
01.03.2014 00:46 6,8 C 5,6 C 87 % 1000,1 hPa 0,0 l/m 0 min 0 min 0,0 UV-I 0 W/m 10,3 km/h (2 Bft)
01.03.2014 00:48 6,8 C 5,6 C 87 % 1000,1 hPa 0,0 l/m 0 min 0 min 0,0 UV-I 0 W/m 12,9 km/h (3 Bft)
01.03.2014 00:50 6,8 C 5,6 C 87 % 1000,1 hPa 0,0 l/m 0 min 0 min 0,0 UV-I 0 W/m 10,3 km/h (2 Bft)
01.03.2014 00:52 6,9 C 5,6 C 87 % 1000,1 hPa 0,0 l/m 0 min 0 min 0,0 UV-I 0 W/m 12,9 km/h (3 Bft)
01.03.2014 00:54 6,9 C 5,6 C 87 % 1000,1 hPa 0,0 l/m 0 min 0 min 0,0 UV-I 0 W/m 12,9 km/h (3 Bft)
01.03.2014 00:56 6,9 C 5,6 C 87 % 1000,1 hPa 0,0 l/m 0 min 0 min 0,0 UV-I 0 W/m 15,4 km/h (3 Bft)
01.03.2014 00:58 6,9 C 5,6 C 87 % 1000,2 hPa 0,0 l/m 0 min 0 min 0,0 UV-I 0 W/m 18,0 km/h (3 Bft)
01.03.2014 01:00 6,9 C 5,6 C 86 % 1000,1 hPa 0,0 l/m 0 min 0 min 0,0 UV-I 0 W/m 12,9 km/h (3 Bft)
01.03.2014 01:02 6,9 C 5,6 C 86 % 1000,1 hPa 0,0 l/m 0 min 0 min 0,0 UV-I 0 W/m 18,0 km/h (3 Bft)
01.03.2014 01:04 6,9 C 5,6 C 86 % 1000,1 hPa 0,0 l/m 0 min 0 min 0,0 UV-I 0 W/m 10,3 km/h (2 Bft)
01.03.2014 01:06 6,9 C 5,6 C 86 % 1000,2 hPa 0,0 l/m 0 min 0 min 0,0 UV-I 0 W/m 12,9 km/h (3 Bft)
01.03.2014 01:08 6,9 C 5,6 C 86 % 1000,2 hPa 0,0 l/m 0 min 0 min 0,0 UV-I 0 W/m 12,9 km/h (3 Bft)
01.03.2014 01:10 6,8 C 5,6 C 86 % 1000,2 hPa 0,0 l/m 0 min 0 min 0,0 UV-I 0 W/m 7,7 km/h (2 Bft)
01.03.2014 01:12 6,8 C 5,0 C 86 % 1000,2 hPa 0,0 l/m 0 min 0 min 0,0 UV-I 0 W/m 10,3 km/h (2 Bft)
01.03.2014 01:14 6,8 C 5,6 C 86 % 1000,3 hPa 0,0 l/m 0 min 0 min 0,0 UV-I 0 W/m 15,4 km/h (3 Bft)
01.03.2014 01:16 6,7 C 5,0 C 85 % 1000,3 hPa 0,0 l/m 0 min 0 min 0,0 UV-I 0 W/m 10,3 km/h (2 Bft)
01.03.2014 01:18 6,7 C 5,0 C 85 % 1000,3 hPa 0,0 l/m 0 min 0 min 0,0 UV-I 0 W/m 12,9 km/h (3 Bft)
01.03.2014 01:20 6,7 C 5,0 C 85 % 1000,3 hPa 0,0 l/m 0 min 0 min 0,0 UV-I 0 W/m 10,3 km/h (2 Bft)
01.03.2014 01:22 6,6 C 5,0 C 85 % 1000,4 hPa 0,0 l/m 0 min 0 min 0,0 UV-I 0 W/m 12,9 km/h (3 Bft)
01.03.2014 01:24 6,6 C 5,0 C 85 % 1000,4 hPa 0,0 l/m 0 min 0 min 0,0 UV-I 0 W/m 5,1 km/h (1 Bft)
01.03.2014 01:26 6,6 C 5,0 C 85 % 1000,4 hPa 0,0 l/m 0 min 0 min 0,0 UV-I 0 W/m 15,4 km/h (3 Bft)
01.03.2014 01:28 6,4 C 5,0 C 85 % 1000,4 hPa 0,0 l/m 0 min 0 min 0,0 UV-I 0 W/m 10,3 km/h (2 Bft)
01.03.2014 01:30 6,4 C 5,0 C 85 % 1000,4 hPa 0,0 l/m 0 min 0 min 0,0 UV-I 0 W/m 7,7 km/h (2 Bft)
01.03.2014 01:32 6,3 C 5,0 C 85 % 1000,4 hPa 0,0 l/m 0 min 0 min 0,0 UV-I 0 W/m 0,0 km/h (0 Bft)
01.03.2014 01:34 6,3 C 4,4 C 85 % 1000,4 hPa 0,0 l/m 0 min 0 min 0,0 UV-I 0 W/m 18,0 km/h (3 Bft)
01.03.2014 01:36 6,2 C 4,4 C 86 % 1000,5 hPa 0,0 l/m 0 min 0 min 0,0 UV-I 0 W/m 7,7 km/h (2 Bft)
01.03.2014 01:38 6,2 C 4,4 C 86 % 1000,5 hPa 0,0 l/m 0 min 0 min 0,0 UV-I 0 W/m 0,0 km/h (0 Bft)
01.03.2014 01:40 6,1 C 4,4 C 86 % 1000,5 hPa 0,0 l/m 0 min 0 min 0,0 UV-I 0 W/m 7,7 km/h (2 Bft)
01.03.2014 01:42 6,1 C 4,4 C 86 % 1000,5 hPa 0,0 l/m 0 min 0 min 0,0 UV-I 0 W/m 5,1 km/h (1 Bft)
01.03.2014 01:44 6,0 C 4,4 C 86 % 1000,5 hPa 0,0 l/m 0 min 0 min 0,0 UV-I 0 W/m 0,0 km/h (0 Bft)
01.03.2014 01:46 6,0 C 4,4 C 86 % 1000,5 hPa 0,0 l/m 0 min 0 min 0,0 UV-I 0 W/m 0,0 km/h (0 Bft)
01.03.2014 01:48 5,9 C 4,4 C 86 % 1000,6 hPa 0,0 l/m 0 min 0 min 0,0 UV-I 0 W/m 0,0 km/h (0 Bft)
01.03.2014 01:50 5,9 C 4,4 C 86 % 1000,5 hPa 0,0 l/m 0 min 0 min 0,0 UV-I 0 W/m 2,6 km/h (1 Bft)
01.03.2014 01:52 5,8 C 4,4 C 86 % 1000,5 hPa 0,0 l/m 0 min 0 min 0,0 UV-I 0 W/m 0,0 km/h (0 Bft)
01.03.2014 01:54 5,8 C 4,4 C 86 % 1000,5 hPa 0,0 l/m 0 min 0 min 0,0 UV-I 0 W/m 0,0 km/h (0 Bft)
01.03.2014 01:56 5,8 C 4,4 C 86 % 1000,6 hPa 0,0 l/m 0 min 0 min 0,0 UV-I 0 W/m 0,0 km/h (0 Bft)
01.03.2014 01:58 5,7 C 4,4 C 86 % 1000,6 hPa 0,0 l/m 0 min 0 min 0,0 UV-I 0 W/m 2,6 km/h (1 Bft)
01.03.2014 02:00 5,7 C 4,4 C 86 % 1000,7 hPa 0,0 l/m 0 min 0 min 0,0 UV-I 0 W/m 0,0 km/h (0 Bft)
01.03.2014 02:02 5,6 C 3,9 C 86 % 1000,7 hPa 0,0 l/m 0 min 0 min 0,0 UV-I 0 W/m 0,0 km/h (0 Bft)
01.03.2014 02:04 5,6 C 3,9 C 86 % 1000,7 hPa 0,0 l/m 0 min 0 min 0,0 UV-I 0 W/m 0,0 km/h (0 Bft)
01.03.2014 02:06 5,6 C 3,9 C 86 % 1000,8 hPa 0,0 l/m 0 min 0 min 0,0 UV-I 0 W/m 0,0 km/h (0 Bft)
01.03.2014 02:08 5,5 C 3,9 C 86 % 1000,9 hPa 0,0 l/m 0 min 0 min 0,0 UV-I 0 W/m 2,6 km/h (1 Bft)
01.03.2014 02:10 5,4 C 3,9 C 86 % 1000,9 hPa 0,0 l/m 0 min 0 min 0,0 UV-I 0 W/m 0,0 km/h (0 Bft)
01.03.2014 02:12 5,4 C 3,9 C 86 % 1000,9 hPa 0,0 l/m 0 min 0 min 0,0 UV-I 0 W/m 0,0 km/h (0 Bft)
01.03.2014 02:14 5,3 C 3,9 C 87 % 1000,9 hPa 0,0 l/m 0 min 0 min 0,0 UV-I 0 W/m 0,0 km/h (0 Bft)
01.03.2014 02:16 5,3 C 3,3 C 87 % 1000,8 hPa 0,0 l/m 0 min 0 min 0,0 UV-I 0 W/m 0,0 km/h (0 Bft)
01.03.2014 02:18 5,2 C 3,3 C 87 % 1000,9 hPa 0,0 l/m 0 min 0 min 0,0 UV-I 0 W/m 0,0 km/h (0 Bft)
01.03.2014 02:20 5,2 C 3,3 C 87 % 1000,9 hPa 0,0 l/m 0 min 0 min 0,0 UV-I 0 W/m 0,0 km/h (0 Bft)
01.03.2014 02:22 5,2 C 3,3 C 87 % 1000,9 hPa 0,0 l/m 0 min 0 min 0,0 UV-I 0 W/m 0,0 km/h (0 Bft)
01.03.2014 02:24 5,2 C 3,3 C 87 % 1000,8 hPa 0,0 l/m 0 min 0 min 0,0 UV-I 0 W/m 0,0 km/h (0 Bft)
01.03.2014 02:26 5,1 C 3,3 C 87 % 1000,9 hPa 0,0 l/m 0 min 0 min 0,0 UV-I 0 W/m 0,0 km/h (0 Bft)
01.03.2014 02:28 5,1 C 3,3 C 87 % 1000,9 hPa 0,0 l/m 0 min 0 min 0,0 UV-I 0 W/m 2,6 km/h (1 Bft)
01.03.2014 02:30 5,1 C 3,3 C 88 % 1001,0 hPa 0,0 l/m 0 min 0 min 0,0 UV-I 0 W/m 0,0 km/h (0 Bft)
01.03.2014 02:32 5,1 C 3,3 C 88 % 1000,9 hPa 0,0 l/m 0 min 0 min 0,0 UV-I 0 W/m 0,0 km/h (0 Bft)
01.03.2014 02:34 5,0 C 3,3 C 88 % 1000,9 hPa 0,0 l/m 0 min 0 min 0,0 UV-I 0 W/m 0,0 km/h (0 Bft)
01.03.2014 02:36 5,0 C 3,3 C 88 % 1000,9 hPa 0,0 l/m 0 min 0 min 0,0 UV-I 0 W/m 0,0 km/h (0 Bft)
01.03.2014 02:38 4,9 C 3,3 C 88 % 1000,9 hPa 0,0 l/m 0 min 0 min 0,0 UV-I 0 W/m 0,0 km/h (0 Bft)
01.03.2014 02:40 4,9 C 3,3 C 88 % 1000,8 hPa 0,0 l/m 0 min 0 min 0,0 UV-I 0 W/m 0,0 km/h (0 Bft)
01.03.2014 02:42 4,9 C 3,3 C 88 % 1000,7 hPa 0,0 l/m 0 min 0 min 0,0 UV-I 0 W/m 0,0 km/h (0 Bft)
01.03.2014 02:44 4,8 C 2,8 C 88 % 1000,8 hPa 0,0 l/m 0 min 0 min 0,0 UV-I 0 W/m 0,0 km/h (0 Bft)
01.03.2014 02:46 4,8 C 2,8 C 88 % 1000,8 hPa 0,0 l/m 0 min 0 min 0,0 UV-I 0 W/m 0,0 km/h (0 Bft)
01.03.2014 02:48 4,8 C 2,8 C 88 % 1000,7 hPa 0,0 l/m 0 min 0 min 0,0 UV-I 0 W/m 0,0 km/h (0 Bft)
01.03.2014 02:50 4,7 C 2,8 C 88 % 1000,7 hPa 0,0 l/m 0 min 0 min 0,0 UV-I 0 W/m 0,0 km/h (0 Bft)
01.03.2014 02:52 4,7 C 2,8 C 88 % 1000,7 hPa 0,0 l/m 0 min 0 min 0,0 UV-I 0 W/m 0,0 km/h (0 Bft)
01.03.2014 02:54 4,6 C 2,8 C 89 % 1000,7 hPa 0,0 l/m 0 min 0 min 0,0 UV-I 0 W/m 0,0 km/h (0 Bft)
01.03.2014 02:56 4,6 C 2,8 C 89 % 1000,7 hPa 0,0 l/m 0 min 0 min 0,0 UV-I 0 W/m 0,0 km/h (0 Bft)
01.03.2014 02:58 4,5 C 2,2 C 89 % 1000,7 hPa 0,0 l/m 0 min 0 min 0,0 UV-I 0 W/m 0,0 km/h (0 Bft)
01.03.2014 03:00 4,4 C 2,2 C 89 % 1000,7 hPa 0,0 l/m 0 min 0 min 0,0 UV-I 0 W/m 0,0 km/h (0 Bft)
01.03.2014 03:02 4,4 C 2,2 C 89 % 1000,6 hPa 0,0 l/m 0 min 0 min 0,0 UV-I 0 W/m 0,0 km/h (0 Bft)
01.03.2014 03:04 4,3 C 2,2 C 89 % 1000,7 hPa 0,0 l/m 0 min 0 min 0,0 UV-I 0 W/m 0,0 km/h (0 Bft)
01.03.2014 03:06 4,3 C 2,2 C 89 % 1000,7 hPa 0,0 l/m 0 min 0 min 0,0 UV-I 0 W/m 0,0 km/h (0 Bft)
01.03.2014 03:08 4,2 C 2,2 C 89 % 1000,6 hPa 0,0 l/m 0 min 0 min 0,0 UV-I 0 W/m 0,0 km/h (0 Bft)
01.03.2014 03:10 4,1 C 1,7 C 89 % 1000,6 hPa 0,0 l/m 0 min 0 min 0,0 UV-I 0 W/m 0,0 km/h (0 Bft)
01.03.2014 03:12 4,0 C 1,7 C 89 % 1000,6 hPa 0,0 l/m 0 min 0 min 0,0 UV-I 0 W/m 0,0 km/h (0 Bft)
01.03.2014 03:14 3,9 C 1,7 C 90 % 1000,6 hPa 0,0 l/m 0 min 0 min 0,0 UV-I 0 W/m 0,0 km/h (0 Bft)
01.03.2014 03:16 3,9 C 1,7 C 90 % 1000,6 hPa 0,0 l/m 0 min 0 min 0,0 UV-I 0 W/m 0,0 km/h (0 Bft)
01.03.2014 03:18 3,8 C 1,7 C 90 % 1000,6 hPa 0,0 l/m 0 min 0 min 0,0 UV-I 0 W/m 0,0 km/h (0 Bft)
01.03.2014 03:20 3,7 C 1,7 C 90 % 1000,6 hPa 0,0 l/m 0 min 0 min 0,0 UV-I 0 W/m 0,0 km/h (0 Bft)
01.03.2014 03:22 3,6 C 1,7 C 90 % 1000,7 hPa 0,0 l/m 0 min 0 min 0,0 UV-I 0 W/m 0,0 km/h (0 Bft)
01.03.2014 03:24 3,6 C 1,1 C 90 % 1000,8 hPa 0,0 l/m 0 min 0 min 0,0 UV-I 0 W/m 0,0 km/h (0 Bft)
01.03.2014 03:26 3,5 C 1,1 C 90 % 1000,9 hPa 0,0 l/m 0 min 0 min 0,0 UV-I 0 W/m 0,0 km/h (0 Bft)
01.03.2014 03:28 3,4 C 1,1 C 90 % 1000,7 hPa 0,0 l/m 0 min 0 min 0,0 UV-I 0 W/m 0,0 km/h (0 Bft)
01.03.2014 03:30 3,4 C 1,1 C 90 % 1000,6 hPa 0,0 l/m 0 min 0 min 0,0 UV-I 0 W/m 0,0 km/h (0 Bft)
01.03.2014 03:32 3,4 C 1,1 C 90 % 1000,6 hPa 0,0 l/m 0 min 0 min 0,0 UV-I 0 W/m 0,0 km/h (0 Bft)
01.03.2014 03:34 3,3 C 1,1 C 90 % 1000,6 hPa 0,0 l/m 0 min 0 min 0,0 UV-I 0 W/m 0,0 km/h (0 Bft)
01.03.2014 03:36 3,3 C 1,1 C 91 % 1000,6 hPa 0,0 l/m 0 min 0 min 0,0 UV-I 0 W/m 0,0 km/h (0 Bft)
01.03.2014 03:38 3,3 C 1,1 C 91 % 1000,6 hPa 0,0 l/m 0 min 0 min 0,0 UV-I 0 W/m 0,0 km/h (0 Bft)
01.03.2014 03:40 3,2 C 1,1 C 91 % 1000,6 hPa 0,0 l/m 0 min 0 min 0,0 UV-I 0 W/m 0,0 km/h (0 Bft)
01.03.2014 03:42 3,2 C 1,1 C 91 % 1000,6 hPa 0,0 l/m 0 min 0 min 0,0 UV-I 0 W/m 0,0 km/h (0 Bft)
01.03.2014 03:44 3,2 C 1,1 C 91 % 1000,7 hPa 0,0 l/m 0 min 0 min 0,0 UV-I 0 W/m 0,0 km/h (0 Bft)
01.03.2014 03:46 3,2 C 1,1 C 91 % 1000,7 hPa 0,0 l/m 0 min 0 min 0,0 UV-I 0 W/m 0,0 km/h (0 Bft)
01.03.2014 03:48 3,2 C 1,1 C 91 % 1000,6 hPa 0,0 l/m 0 min 0 min 0,0 UV-I 0 W/m 0,0 km/h (0 Bft)
01.03.2014 03:50 3,1 C 1,1 C 91 % 1000,6 hPa 0,0 l/m 0 min 0 min 0,0 UV-I 0 W/m 0,0 km/h (0 Bft)
01.03.2014 03:52 3,1 C 1,1 C 91 % 1000,6 hPa 0,0 l/m 0 min 0 min 0,0 UV-I 0 W/m 0,0 km/h (0 Bft)
01.03.2014 03:54 3,1 C 1,1 C 91 % 1000,5 hPa 0,0 l/m 0 min 0 min 0,0 UV-I 0 W/m 0,0 km/h (0 Bft)
01.03.2014 03:56 3,1 C 1,1 C 91 % 1000,5 hPa 0,0 l/m 0 min 0 min 0,0 UV-I 0 W/m 0,0 km/h (0 Bft)
01.03.2014 03:58 3,1 C 1,1 C 91 % 1000,5 hPa 0,0 l/m 0 min 0 min 0,0 UV-I 0 W/m 0,0 km/h (0 Bft)
01.03.2014 04:00 3,1 C 1,1 C 91 % 1000,6 hPa 0,0 l/m 0 min 0 min 0,0 UV-I 0 W/m 0,0 km/h (0 Bft)
01.03.2014 04:05 3,0 C 1,1 C 91 % 1000,6 hPa 0,0 l/m 0 min 0 min 0,0 UV-I 0 W/m 0,0 km/h (0 Bft)
01.03.2014 04:06 3,0 C 1,1 C 91 % 1000,6 hPa 0,0 l/m 0 min 0 min 0,0 UV-I 0 W/m 0,0 km/h (0 Bft)
01.03.2014 04:08 3,0 C 0,6 C 91 % 1000,6 hPa 0,0 l/m 0 min 0 min 0,0 UV-I 0 W/m 0,0 km/h (0 Bft)
01.03.2014 04:10 2,9 C 0,6 C 91 % 1000,7 hPa 0,0 l/m 0 min 0 min 0,0 UV-I 0 W/m 0,0 km/h (0 Bft)
01.03.2014 04:12 2,9 C 0,6 C 91 % 1000,7 hPa 0,0 l/m 0 min 0 min 0,0 UV-I 0 W/m 0,0 km/h (0 Bft)
01.03.2014 04:14 2,9 C 0,6 C 91 % 1000,7 hPa 0,0 l/m 0 min 0 min 0,0 UV-I 0 W/m 0,0 km/h (0 Bft)
01.03.2014 04:16 2,9 C 0,6 C 91 % 1000,7 hPa 0,0 l/m 0 min 0 min 0,0 UV-I 0 W/m 0,0 km/h (0 Bft)
01.03.2014 04:18 2,8 C 0,6 C 91 % 1000,6 hPa 0,0 l/m 0 min 0 min 0,0 UV-I 0 W/m 0,0 km/h (0 Bft)
01.03.2014 04:20 2,8 C 0,6 C 91 % 1000,6 hPa 0,0 l/m 0 min 0 min 0,0 UV-I 0 W/m 0,0 km/h (0 Bft)
01.03.2014 04:22 2,8 C 0,6 C 91 % 1000,6 hPa 0,0 l/m 0 min 0 min 0,0 UV-I 0 W/m 0,0 km/h (0 Bft)
01.03.2014 04:24 2,7 C 0,6 C 91 % 1000,6 hPa 0,0 l/m 0 min 0 min 0,0 UV-I 0 W/m 0,0 km/h (0 Bft)
01.03.2014 04:26 2,7 C 0,6 C 91 % 1000,6 hPa 0,0 l/m 0 min 0 min 0,0 UV-I 0 W/m 0,0 km/h (0 Bft)
01.03.2014 04:28 2,7 C 0,6 C 91 % 1000,6 hPa 0,0 l/m 0 min 0 min 0,0 UV-I 0 W/m 0,0 km/h (0 Bft)
01.03.2014 04:30 2,6 C 0,6 C 91 % 1000,6 hPa 0,0 l/m 0 min 0 min 0,0 UV-I 0 W/m 0,0 km/h (0 Bft)
01.03.2014 04:32 2,6 C 0,6 C 91 % 1000,6 hPa 0,0 l/m 0 min 0 min 0,0 UV-I 0 W/m 0,0 km/h (0 Bft)
01.03.2014 04:34 2,6 C 0,6 C 91 % 1000,6 hPa 0,0 l/m 0 min 0 min 0,0 UV-I 0 W/m 0,0 km/h (0 Bft)
01.03.2014 04:36 2,6 C 0,6 C 91 % 1000,6 hPa 0,0 l/m 0 min 0 min 0,0 UV-I 0 W/m 0,0 km/h (0 Bft)
01.03.2014 04:38 2,5 C 0,6 C 91 % 1000,6 hPa 0,0 l/m 0 min 0 min 0,0 UV-I 0 W/m 0,0 km/h (0 Bft)
01.03.2014 04:40 2,5 C 0,6 C 91 % 1000,7 hPa 0,0 l/m 0 min 0 min 0,0 UV-I 0 W/m 0,0 km/h (0 Bft)
01.03.2014 04:42 2,4 C 0,6 C 91 % 1000,7 hPa 0,0 l/m 0 min 0 min 0,0 UV-I 0 W/m 0,0 km/h (0 Bft)
01.03.2014 04:44 2,4 C 0,6 C 91 % 1000,7 hPa 0,0 l/m 0 min 0 min 0,0 UV-I 0 W/m 0,0 km/h (0 Bft)
01.03.2014 04:46 2,4 C 0,6 C 91 % 1000,7 hPa 0,0 l/m 0 min 0 min 0,0 UV-I 0 W/m 0,0 km/h (0 Bft)
01.03.2014 04:48 2,4 C 0,6 C 91 % 1000,7 hPa 0,0 l/m 0 min 0 min 0,0 UV-I 0 W/m 0,0 km/h (0 Bft)
01.03.2014 04:50 2,4 C 0,6 C 91 % 1000,7 hPa 0,0 l/m 0 min 0 min 0,0 UV-I 0 W/m 2,6 km/h (1 Bft)
01.03.2014 04:52 2,3 C 0,6 C 91 % 1000,7 hPa 0,0 l/m 0 min 0 min 0,0 UV-I 0 W/m 0,0 km/h (0 Bft)
01.03.2014 04:54 2,3 C 0,6 C 91 % 1000,7 hPa 0,0 l/m 0 min 0 min 0,0 UV-I 0 W/m 0,0 km/h (0 Bft)
01.03.2014 04:56 2,3 C 0,6 C 92 % 1000,7 hPa 0,0 l/m 0 min 0 min 0,0 UV-I 0 W/m 0,0 km/h (0 Bft)
01.03.2014 04:58 2,3 C 0,6 C 92 % 1000,7 hPa 0,0 l/m 0 min 0 min 0,0 UV-I 0 W/m 0,0 km/h (0 Bft)
01.03.2014 05:00 2,3 C 0,6 C 92 % 1000,7 hPa 0,0 l/m 0 min 0 min 0,0 UV-I 0 W/m 0,0 km/h (0 Bft)
01.03.2014 05:02 2,3 C 0,6 C 92 % 1000,7 hPa 0,0 l/m 0 min 0 min 0,0 UV-I 0 W/m 0,0 km/h (0 Bft)
01.03.2014 05:04 2,3 C 0,6 C 92 % 1000,7 hPa 0,0 l/m 0 min 0 min 0,0 UV-I 0 W/m 0,0 km/h (0 Bft)
01.03.2014 05:06 2,3 C 0,6 C 92 % 1000,8 hPa 0,0 l/m 0 min 0 min 0,0 UV-I 0 W/m 0,0 km/h (0 Bft)
01.03.2014 05:08 2,3 C 0,6 C 92 % 1000,8 hPa 0,0 l/m 0 min 0 min 0,0 UV-I 0 W/m 0,0 km/h (0 Bft)
01.03.2014 05:10 2,3 C 0,6 C 92 % 1000,8 hPa 0,0 l/m 0 min 0 min 0,0 UV-I 0 W/m 0,0 km/h (0 Bft)
01.03.2014 05:12 2,3 C 0,6 C 92 % 1000,8 hPa 0,0 l/m 0 min 0 min 0,0 UV-I 0 W/m 0,0 km/h (0 Bft)
01.03.2014 05:14 2,3 C 0,6 C 92 % 1000,8 hPa 0,0 l/m 0 min 0 min 0,0 UV-I 0 W/m 0,0 km/h (0 Bft)
01.03.2014 05:16 2,3 C 0,6 C 92 % 1000,8 hPa 0,0 l/m 0 min 0 min 0,0 UV-I 0 W/m 0,0 km/h (0 Bft)
01.03.2014 05:18 2,3 C 0,6 C 92 % 1000,8 hPa 0,0 l/m 0 min 0 min 0,0 UV-I 0 W/m 0,0 km/h (0 Bft)
01.03.2014 05:20 2,3 C 0,6 C 92 % 1000,8 hPa 0,0 l/m 0 min 0 min 0,0 UV-I 0 W/m 0,0 km/h (0 Bft)
01.03.2014 05:22 2,3 C 0,6 C 92 % 1001,0 hPa 0,0 l/m 0 min 0 min 0,0 UV-I 0 W/m 0,0 km/h (0 Bft)
01.03.2014 05:24 2,3 C 0,6 C 93 % 1001,0 hPa 0,0 l/m 0 min 0 min 0,0 UV-I 0 W/m 0,0 km/h (0 Bft)
01.03.2014 05:26 2,2 C 0,6 C 93 % 1000,9 hPa 0,0 l/m 0 min 0 min 0,0 UV-I 0 W/m 0,0 km/h (0 Bft)
01.03.2014 05:28 2,2 C 0,6 C 93 % 1001,0 hPa 0,0 l/m 0 min 0 min 0,0 UV-I 0 W/m 0,0 km/h (0 Bft)
01.03.2014 05:30 2,2 C 0,6 C 93 % 1000,9 hPa 0,0 l/m 0 min 0 min 0,0 UV-I 0 W/m 0,0 km/h (0 Bft)
01.03.2014 05:32 2,2 C 0,6 C 93 % 1000,9 hPa 0,0 l/m 0 min 0 min 0,0 UV-I 0 W/m 0,0 km/h (0 Bft)
01.03.2014 05:34 2,2 C 0,6 C 93 % 1000,9 hPa 0,0 l/m 0 min 0 min 0,0 UV-I 0 W/m 0,0 km/h (0 Bft)
01.03.2014 05:36 2,2 C 0,6 C 93 % 1001,0 hPa 0,0 l/m 0 min 0 min 0,0 UV-I 0 W/m 0,0 km/h (0 Bft)
01.03.2014 05:38 2,2 C 0,6 C 93 % 1000,9 hPa 0,0 l/m 0 min 0 min 0,0 UV-I 0 W/m 0,0 km/h (0 Bft)
01.03.2014 05:40 2,2 C 0,6 C 93 % 1000,9 hPa 0,0 l/m 0 min 0 min 0,0 UV-I 0 W/m 0,0 km/h (0 Bft)
01.03.2014 05:42 2,2 C 0,0 C 93 % 1000,8 hPa 0,0 l/m 0 min 0 min 0,0 UV-I 0 W/m 0,0 km/h (0 Bft)
01.03.2014 05:44 2,2 C 0,0 C 93 % 1000,8 hPa 0,0 l/m 0 min 0 min 0,0 UV-I 0 W/m 0,0 km/h (0 Bft)
01.03.2014 05:46 2,1 C 0,0 C 93 % 1000,8 hPa 0,0 l/m 0 min 0 min 0,0 UV-I 0 W/m 0,0 km/h (0 Bft)
01.03.2014 05:48 2,1 C 0,0 C 93 % 1000,8 hPa 0,0 l/m 0 min 0 min 0,0 UV-I 0 W/m 0,0 km/h (0 Bft)
01.03.2014 05:50 2,1 C 0,0 C 93 % 1000,8 hPa 0,0 l/m 0 min 0 min 0,0 UV-I 0 W/m 0,0 km/h (0 Bft)
01.03.2014 05:52 2,1 C 0,0 C 93 % 1000,8 hPa 0,0 l/m 0 min 0 min 0,0 UV-I 0 W/m 0,0 km/h (0 Bft)
01.03.2014 05:54 2,1 C 0,0 C 93 % 1000,8 hPa 0,0 l/m 0 min 0 min 0,0 UV-I 0 W/m 0,0 km/h (0 Bft)
01.03.2014 05:56 2,1 C 0,0 C 93 % 1000,8 hPa 0,0 l/m 0 min 0 min 0,0 UV-I 0 W/m 0,0 km/h (0 Bft)
01.03.2014 05:58 2,0 C 0,0 C 93 % 1000,9 hPa 0,0 l/m 0 min 0 min 0,0 UV-I 0 W/m 0,0 km/h (0 Bft)
01.03.2014 06:00 2,0 C 0,0 C 93 % 1000,9 hPa 0,0 l/m 0 min 0 min 0,0 UV-I 0 W/m 0,0 km/h (0 Bft)
01.03.2014 06:02 2,0 C 0,0 C 93 % 1000,9 hPa 0,0 l/m 0 min 0 min 0,0 UV-I 0 W/m 0,0 km/h (0 Bft)
01.03.2014 06:04 2,0 C 0,0 C 93 % 1000,9 hPa 0,0 l/m 0 min 0 min 0,0 UV-I 0 W/m 0,0 km/h (0 Bft)
01.03.2014 06:06 1,9 C 0,0 C 93 % 1000,9 hPa 0,0 l/m 0 min 0 min 0,0 UV-I 0 W/m 0,0 km/h (0 Bft)
01.03.2014 06:08 1,9 C 0,0 C 93 % 1000,9 hPa 0,0 l/m 0 min 0 min 0,0 UV-I 0 W/m 0,0 km/h (0 Bft)
01.03.2014 06:10 1,9 C 0,0 C 93 % 1001,0 hPa 0,0 l/m 0 min 0 min 0,0 UV-I 0 W/m 0,0 km/h (0 Bft)
01.03.2014 06:12 1,9 C 0,0 C 93 % 1000,9 hPa 0,0 l/m 0 min 0 min 0,0 UV-I 0 W/m 0,0 km/h (0 Bft)
01.03.2014 06:14 1,9 C 0,0 C 93 % 1000,9 hPa 0,0 l/m 0 min 0 min 0,0 UV-I 0 W/m 0,0 km/h (0 Bft)
01.03.2014 06:16 1,9 C 0,0 C 93 % 1001,0 hPa 0,0 l/m 0 min 0 min 0,0 UV-I 0 W/m 0,0 km/h (0 Bft)
01.03.2014 06:18 1,9 C 0,0 C 93 % 1001,0 hPa 0,0 l/m 0 min 0 min 0,0 UV-I 0 W/m 0,0 km/h (0 Bft)
01.03.2014 06:20 1,8 C 0,0 C 93 % 1001,0 hPa 0,0 l/m 0 min 0 min 0,0 UV-I 0 W/m 0,0 km/h (0 Bft)
01.03.2014 06:22 1,8 C 0,0 C 93 % 1001,0 hPa 0,0 l/m 0 min 0 min 0,0 UV-I 0 W/m 0,0 km/h (0 Bft)
01.03.2014 06:24 1,8 C 0,0 C 93 % 1001,0 hPa 0,0 l/m 0 min 0 min 0,0 UV-I 0 W/m 0,0 km/h (0 Bft)
01.03.2014 06:26 1,8 C 0,0 C 93 % 1001,0 hPa 0,0 l/m 0 min 0 min 0,0 UV-I 0 W/m 0,0 km/h (0 Bft)
01.03.2014 06:28 1,8 C 0,0 C 93 % 1001,0 hPa 0,0 l/m 0 min 0 min 0,0 UV-I 0 W/m 0,0 km/h (0 Bft)
01.03.2014 06:30 1,7 C 0,0 C 93 % 1001,0 hPa 0,0 l/m 0 min 0 min 0,0 UV-I 0 W/m 0,0 km/h (0 Bft)
01.03.2014 06:32 1,7 C 0,0 C 93 % 1001,0 hPa 0,0 l/m 0 min 0 min 0,0 UV-I 0 W/m 0,0 km/h (0 Bft)
01.03.2014 06:34 1,7 C 0,0 C 93 % 1001,1 hPa 0,0 l/m 0 min 0 min 0,0 UV-I 0 W/m 0,0 km/h (0 Bft)
01.03.2014 06:36 1,7 C 0,0 C 93 % 1001,0 hPa 0,0 l/m 0 min 0 min 0,0 UV-I 0 W/m 0,0 km/h (0 Bft)
01.03.2014 06:38 1,7 C 0,0 C 93 % 1001,0 hPa 0,0 l/m 0 min 0 min 0,0 UV-I 0 W/m 0,0 km/h (0 Bft)
01.03.2014 06:40 1,7 C 0,0 C 93 % 1001,0 hPa 0,0 l/m 0 min 0 min 0,0 UV-I 0 W/m 0,0 km/h (0 Bft)
01.03.2014 06:42 1,6 C 0,0 C 93 % 1001,0 hPa 0,0 l/m 0 min 0 min 0,0 UV-I 0 W/m 0,0 km/h (0 Bft)
01.03.2014 06:44 1,6 C 0,0 C 93 % 1001,0 hPa 0,0 l/m 0 min 0 min 0,0 UV-I 0 W/m 0,0 km/h (0 Bft)
01.03.2014 06:46 1,6 C 0,0 C 93 % 1001,0 hPa 0,0 l/m 0 min 0 min 0,0 UV-I 0 W/m 0,0 km/h (0 Bft)
01.03.2014 06:48 1,6 C 0,0 C 94 % 1001,0 hPa 0,0 l/m 0 min 0 min 0,0 UV-I 0 W/m 0,0 km/h (0 Bft)
01.03.2014 06:50 1,6 C 0,0 C 94 % 1001,0 hPa 0,0 l/m 0 min 0 min 0,0 UV-I 0 W/m 0,0 km/h (0 Bft)
01.03.2014 06:52 1,6 C 0,0 C 94 % 1001,0 hPa 0,0 l/m 0 min 0 min 0,0 UV-I 0 W/m 0,0 km/h (0 Bft)
01.03.2014 06:54 1,6 C 0,0 C 94 % 1001,0 hPa 0,0 l/m 0 min 0 min 0,0 UV-I 0 W/m 0,0 km/h (0 Bft)
01.03.2014 06:56 1,6 C -0,6 C 94 % 1001,0 hPa 0,0 l/m 0 min 0 min 0,0 UV-I 0 W/m 0,0 km/h (0 Bft)
01.03.2014 06:58 1,6 C -0,6 C 94 % 1001,1 hPa 0,0 l/m 0 min 0 min 0,0 UV-I 0 W/m 0,0 km/h (0 Bft)
01.03.2014 07:00 1,6 C 0,0 C 94 % 1001,1 hPa 0,0 l/m 0 min 0 min 0,0 UV-I 0 W/m 0,0 km/h (0 Bft)
01.03.2014 07:02 1,6 C 0,0 C 94 % 1001,1 hPa 0,0 l/m 0 min 0 min 0,0 UV-I 0 W/m 0,0 km/h (0 Bft)
01.03.2014 07:04 1,6 C 0,0 C 94 % 1001,1 hPa 0,0 l/m 0 min 0 min 0,0 UV-I 0 W/m 0,0 km/h (0 Bft)
01.03.2014 07:06 1,6 C 0,0 C 94 % 1001,1 hPa 0,0 l/m 0 min 0 min 0,0 UV-I 0 W/m 0,0 km/h (0 Bft)
01.03.2014 07:08 1,6 C 0,0 C 94 % 1001,2 hPa 0,0 l/m 0 min 0 min 0,0 UV-I 0 W/m 0,0 km/h (0 Bft)
01.03.2014 07:10 1,6 C 0,0 C 94 % 1001,1 hPa 0,0 l/m 0 min 0 min 0,0 UV-I 0 W/m 0,0 km/h (0 Bft)
01.03.2014 07:12 1,5 C 0,0 C 94 % 1001,1 hPa 0,0 l/m 0 min 0 min 0,0 UV-I 0 W/m 0,0 km/h (0 Bft)
01.03.2014 07:14 1,5 C 0,0 C 94 % 1001,1 hPa 0,0 l/m 0 min 0 min 0,0 UV-I 0 W/m 0,0 km/h (0 Bft)
01.03.2014 07:16 1,5 C 0,0 C 94 % 1001,2 hPa 0,0 l/m 0 min 0 min 0,0 UV-I 0 W/m 0,0 km/h (0 Bft)
01.03.2014 07:18 1,5 C 0,0 C 94 % 1001,2 hPa 0,0 l/m 0 min 0 min 0,0 UV-I 0 W/m 0,0 km/h (0 Bft)
01.03.2014 07:20 1,5 C 0,0 C 94 % 1001,1 hPa 0,0 l/m 0 min 0 min 0,0 UV-I 0 W/m 0,0 km/h (0 Bft)
01.03.2014 07:22 1,5 C 0,0 C 94 % 1001,2 hPa 0,0 l/m 0 min 0 min 0,0 UV-I 0 W/m 0,0 km/h (0 Bft)
01.03.2014 07:24 1,4 C 0,0 C 94 % 1001,2 hPa 0,0 l/m 0 min 0 min 0,0 UV-I 5 W/m 0,0 km/h (0 Bft)
01.03.2014 07:26 1,4 C 0,0 C 94 % 1001,2 hPa 0,0 l/m 0 min 0 min 0,0 UV-I 5 W/m 0,0 km/h (0 Bft)
01.03.2014 07:28 1,4 C 0,0 C 94 % 1001,2 hPa 0,0 l/m 0 min 0 min 0,0 UV-I 5 W/m 0,0 km/h (0 Bft)
01.03.2014 07:30 1,4 C 0,0 C 94 % 1001,2 hPa 0,0 l/m 0 min 0 min 0,0 UV-I 5 W/m 0,0 km/h (0 Bft)
01.03.2014 07:32 1,4 C 0,0 C 94 % 1001,2 hPa 0,0 l/m 0 min 0 min 0,0 UV-I 7 W/m 0,0 km/h (0 Bft)
01.03.2014 07:34 1,4 C 0,0 C 94 % 1001,2 hPa 0,0 l/m 0 min 0 min 0,0 UV-I 9 W/m 0,0 km/h (0 Bft)
01.03.2014 07:36 1,4 C 0,0 C 94 % 1001,2 hPa 0,0 l/m 0 min 0 min 0,0 UV-I 11 W/m 0,0 km/h (0 Bft)
01.03.2014 07:38 1,4 C 0,0 C 94 % 1001,3 hPa 0,0 l/m 0 min 0 min 0,0 UV-I 11 W/m 0,0 km/h (0 Bft)
01.03.2014 07:40 1,4 C 0,0 C 94 % 1001,2 hPa 0,0 l/m 0 min 0 min 0,0 UV-I 11 W/m 0,0 km/h (0 Bft)
01.03.2014 07:42 1,4 C 0,0 C 94 % 1001,2 hPa 0,0 l/m 0 min 0 min 0,0 UV-I 11 W/m 0,0 km/h (0 Bft)
01.03.2014 07:44 1,4 C 0,0 C 94 % 1001,2 hPa 0,0 l/m 0 min 0 min 0,0 UV-I 11 W/m 0,0 km/h (0 Bft)
01.03.2014 07:46 1,4 C 0,0 C 94 % 1001,2 hPa 0,0 l/m 0 min 0 min 0,0 UV-I 12 W/m 0,0 km/h (0 Bft)
01.03.2014 07:48 1,4 C 0,0 C 94 % 1001,2 hPa 0,0 l/m 0 min 0 min 0,0 UV-I 12 W/m 0,0 km/h (0 Bft)
01.03.2014 07:50 1,4 C 0,0 C 94 % 1001,3 hPa 0,0 l/m 0 min 0 min 0,0 UV-I 14 W/m 0,0 km/h (0 Bft)
01.03.2014 07:52 1,4 C 0,0 C 94 % 1001,2 hPa 0,0 l/m 0 min 0 min 0,0 UV-I 16 W/m 0,0 km/h (0 Bft)
01.03.2014 07:54 1,4 C 0,0 C 94 % 1001,2 hPa 0,0 l/m 0 min 0 min 0,0 UV-I 16 W/m 0,0 km/h (0 Bft)
01.03.2014 07:56 1,4 C 0,0 C 94 % 1001,2 hPa 0,0 l/m 0 min 0 min 0,0 UV-I 16 W/m 0,0 km/h (0 Bft)
01.03.2014 07:58 1,4 C 0,0 C 94 % 1001,2 hPa 0,0 l/m 0 min 0 min 0,0 UV-I 18 W/m 0,0 km/h (0 Bft)
01.03.2014 08:00 1,4 C 0,0 C 94 % 1001,2 hPa 0,0 l/m 0 min 0 min 0,0 UV-I 19 W/m 0,0 km/h (0 Bft)
01.03.2014 08:02 1,3 C 0,0 C 94 % 1001,2 hPa 0,0 l/m 0 min 0 min 0,0 UV-I 19 W/m 0,0 km/h (0 Bft)
01.03.2014 08:04 1,3 C 0,0 C 94 % 1001,2 hPa 0,0 l/m 0 min 0 min 0,0 UV-I 21 W/m 0,0 km/h (0 Bft)
01.03.2014 08:06 1,3 C 0,0 C 94 % 1001,2 hPa 0,0 l/m 0 min 0 min 0,0 UV-I 23 W/m 0,0 km/h (0 Bft)
01.03.2014 08:08 1,3 C 0,0 C 94 % 1001,0 hPa 0,0 l/m 0 min 0 min 0,0 UV-I 23 W/m 0,0 km/h (0 Bft)
01.03.2014 08:10 1,3 C -0,6 C 94 % 1001,0 hPa 0,0 l/m 0 min 0 min 0,0 UV-I 25 W/m 0,0 km/h (0 Bft)
01.03.2014 08:12 1,3 C 0,0 C 94 % 1001,0 hPa 0,0 l/m 0 min 0 min 0,0 UV-I 26 W/m 0,0 km/h (0 Bft)
01.03.2014 08:14 1,3 C 0,0 C 94 % 1001,1 hPa 0,0 l/m 0 min 0 min 0,0 UV-I 28 W/m 0,0 km/h (0 Bft)
01.03.2014 08:16 1,3 C 0,0 C 94 % 1001,1 hPa 0,0 l/m 0 min 0 min 0,0 UV-I 33 W/m 0,0 km/h (0 Bft)
01.03.2014 08:18 1,3 C 0,0 C 95 % 1001,2 hPa 0,0 l/m 0 min 0 min 0,0 UV-I 37 W/m 0,0 km/h (0 Bft)
01.03.2014 08:20 1,3 C 0,0 C 95 % 1001,2 hPa 0,0 l/m 0 min 0 min 0,0 UV-I 39 W/m 0,0 km/h (0 Bft)
01.03.2014 08:22 1,3 C 0,0 C 95 % 1001,2 hPa 0,0 l/m 0 min 0 min 0,0 UV-I 42 W/m 0,0 km/h (0 Bft)
01.03.2014 08:24 1,3 C 0,0 C 95 % 1001,2 hPa 0,0 l/m 0 min 0 min 0,0 UV-I 49 W/m 0,0 km/h (0 Bft)
01.03.2014 08:26 1,3 C 0,0 C 95 % 1001,3 hPa 0,0 l/m 0 min 0 min 0,0 UV-I 58 W/m 0,0 km/h (0 Bft)
01.03.2014 08:28 1,3 C 0,0 C 95 % 1001,2 hPa 0,0 l/m 0 min 0 min 0,0 UV-I 67 W/m 0,0 km/h (0 Bft)
01.03.2014 08:30 1,3 C 0,6 C 95 % 1001,2 hPa 0,0 l/m 0 min 0 min 0,0 UV-I 69 W/m 0,0 km/h (0 Bft)
01.03.2014 08:32 1,3 C 0,6 C 95 % 1001,3 hPa 0,0 l/m 0 min 0 min 0,0 UV-I 74 W/m 0,0 km/h (0 Bft)
01.03.2014 08:34 1,4 C 0,6 C 95 % 1001,3 hPa 0,0 l/m 0 min 0 min 0,0 UV-I 76 W/m 0,0 km/h (0 Bft)
01.03.2014 08:36 1,4 C 0,6 C 95 % 1001,3 hPa 0,0 l/m 0 min 0 min 0,0 UV-I 77 W/m 0,0 km/h (0 Bft)
01.03.2014 08:38 1,4 C 0,6 C 95 % 1001,3 hPa 0,0 l/m 0 min 0 min 0,0 UV-I 76 W/m 0,0 km/h (0 Bft)
01.03.2014 08:40 1,4 C 0,6 C 95 % 1001,3 hPa 0,0 l/m 0 min 0 min 0,0 UV-I 100 W/m 0,0 km/h (0 Bft)
01.03.2014 08:42 1,4 C 0,6 C 95 % 1001,3 hPa 0,0 l/m 0 min 0 min 0,0 UV-I 84 W/m 0,0 km/h (0 Bft)
01.03.2014 08:44 1,5 C 0,6 C 95 % 1001,3 hPa 0,0 l/m 0 min 0 min 0,0 UV-I 83 W/m 5,1 km/h (1 Bft)
01.03.2014 08:46 1,5 C 1,1 C 95 % 1001,3 hPa 0,0 l/m 0 min 0 min 0,0 UV-I 77 W/m 2,6 km/h (1 Bft)
01.03.2014 08:48 1,6 C 1,1 C 95 % 1001,3 hPa 0,0 l/m 0 min 0 min 0,0 UV-I 70 W/m 10,3 km/h (2 Bft)
01.03.2014 08:50 1,7 C 1,1 C 95 % 1001,4 hPa 0,0 l/m 0 min 0 min 0,0 UV-I 79 W/m 7,7 km/h (2 Bft)
01.03.2014 08:52 1,7 C 1,1 C 95 % 1001,4 hPa 0,0 l/m 0 min 0 min 0,0 UV-I 84 W/m 7,7 km/h (2 Bft)
01.03.2014 08:54 1,8 C 1,1 C 95 % 1001,4 hPa 0,0 l/m 0 min 0 min 0,0 UV-I 93 W/m 5,1 km/h (1 Bft)
01.03.2014 08:56 1,8 C 1,1 C 95 % 1001,4 hPa 0,0 l/m 0 min 0 min 0,0 UV-I 74 W/m 5,1 km/h (1 Bft)
01.03.2014 08:58 1,9 C 1,1 C 95 % 1001,4 hPa 0,0 l/m 0 min 0 min 0,0 UV-I 81 W/m 7,7 km/h (2 Bft)
01.03.2014 09:00 1,9 C 1,1 C 95 % 1001,3 hPa 0,0 l/m 0 min 0 min 0,0 UV-I 86 W/m 5,1 km/h (1 Bft)
01.03.2014 09:02 2,0 C 1,7 C 95 % 1001,4 hPa 0,0 l/m 0 min 0 min 0,0 UV-I 120 W/m 2,6 km/h (1 Bft)
01.03.2014 09:04 2,1 C 1,7 C 95 % 1001,5 hPa 0,0 l/m 0 min 0 min 0,0 UV-I 116 W/m 0,0 km/h (0 Bft)
01.03.2014 09:06 2,1 C 1,7 C 96 % 1001,5 hPa 0,0 l/m 0 min 0 min 0,0 UV-I 100 W/m 10,3 km/h (2 Bft)
01.03.2014 09:08 2,2 C 1,7 C 96 % 1001,4 hPa 0,0 l/m 0 min 0 min 0,0 UV-I 88 W/m 0,0 km/h (0 Bft)
01.03.2014 09:10 2,2 C 1,7 C 96 % 1001,4 hPa 0,0 l/m 0 min 0 min 0,0 UV-I 93 W/m 5,1 km/h (1 Bft)
01.03.2014 09:12 2,3 C 1,7 C 96 % 1001,4 hPa 0,0 l/m 0 min 0 min 0,0 UV-I 107 W/m 2,6 km/h (1 Bft)
01.03.2014 09:14 2,5 C 1,7 C 96 % 1001,5 hPa 0,0 l/m 0 min 0 min 0,0 UV-I 121 W/m 7,7 km/h (2 Bft)
01.03.2014 09:16 2,7 C 2,2 C 96 % 1001,5 hPa 0,0 l/m 0 min 0 min 0,0 UV-I 135 W/m 7,7 km/h (2 Bft)
01.03.2014 09:18 2,8 C 2,2 C 96 % 1001,5 hPa 0,0 l/m 0 min 0 min 0,0 UV-I 153 W/m 7,7 km/h (2 Bft)
01.03.2014 09:20 2,9 C 2,2 C 96 % 1001,4 hPa 0,0 l/m 0 min 0 min 0,0 UV-I 118 W/m 7,7 km/h (2 Bft)
01.03.2014 09:22 3,0 C 2,2 C 96 % 1001,5 hPa 0,0 l/m 0 min 0 min 0,0 UV-I 113 W/m 10,3 km/h (2 Bft)
01.03.2014 09:24 3,1 C 2,2 C 96 % 1001,5 hPa 0,0 l/m 0 min 0 min 0,0 UV-I 113 W/m 5,1 km/h (1 Bft)
01.03.2014 09:26 3,3 C 2,8 C 96 % 1001,5 hPa 0,0 l/m 2 min 0 min 0,0 UV-I 178 W/m 7,7 km/h (2 Bft)
01.03.2014 09:28 3,4 C 2,8 C 96 % 1001,5 hPa 0,0 l/m 2 min 0 min 0,0 UV-I 243 W/m 10,3 km/h (2 Bft)
01.03.2014 09:30 3,6 C 2,8 C 96 % 1001,5 hPa 0,0 l/m 2 min 0 min 0,0 UV-I 220 W/m 7,7 km/h (2 Bft)
01.03.2014 09:32 3,7 C 2,8 C 96 % 1001,5 hPa 0,0 l/m 2 min 0 min 0,0 UV-I 179 W/m 10,3 km/h (2 Bft)
01.03.2014 09:34 3,9 C 2,8 C 96 % 1001,5 hPa 0,0 l/m 2 min 0 min 0,0 UV-I 257 W/m 5,1 km/h (1 Bft)
01.03.2014 09:36 4,1 C 2,8 C 96 % 1001,5 hPa 0,0 l/m 2 min 0 min 0,0 UV-I 315 W/m 10,3 km/h (2 Bft)
01.03.2014 09:38 4,3 C 3,3 C 96 % 1001,6 hPa 0,0 l/m 2 min 0 min 0,0 UV-I 213 W/m 10,3 km/h (2 Bft)
01.03.2014 09:40 4,5 C 3,3 C 95 % 1001,6 hPa 0,0 l/m 2 min 0 min 0,0 UV-I 236 W/m 12,9 km/h (3 Bft)
01.03.2014 09:42 4,7 C 3,3 C 95 % 1001,6 hPa 0,0 l/m 2 min 0 min 0,0 UV-I 267 W/m 10,3 km/h (2 Bft)
01.03.2014 09:44 4,8 C 3,9 C 95 % 1001,6 hPa 0,0 l/m 2 min 0 min 0,0 UV-I 209 W/m 10,3 km/h (2 Bft)
01.03.2014 09:46 4,9 C 3,9 C 95 % 1001,6 hPa 0,0 l/m 2 min 0 min 0,0 UV-I 216 W/m 7,7 km/h (2 Bft)
01.03.2014 09:48 5,0 C 4,4 C 94 % 1001,6 hPa 0,0 l/m 2 min 0 min 0,0 UV-I 260 W/m 15,4 km/h (3 Bft)
01.03.2014 09:50 5,2 C 4,4 C 94 % 1001,6 hPa 0,0 l/m 2 min 0 min 0,0 UV-I 214 W/m 18,0 km/h (3 Bft)
01.03.2014 09:52 5,2 C 4,4 C 93 % 1001,5 hPa 0,0 l/m 2 min 0 min 0,0 UV-I 355 W/m 12,9 km/h (3 Bft)
01.03.2014 09:54 5,3 C 5,0 C 92 % 1001,6 hPa 0,0 l/m 2 min 0 min 0,0 UV-I 390 W/m 20,6 km/h (4 Bft)
01.03.2014 09:56 5,5 C 5,0 C 92 % 1001,5 hPa 0,0 l/m 2 min 0 min 0,0 UV-I 334 W/m 15,4 km/h (3 Bft)
01.03.2014 09:58 5,6 C 5,0 C 92 % 1001,5 hPa 0,0 l/m 2 min 0 min 0,0 UV-I 236 W/m 10,3 km/h (2 Bft)
01.03.2014 10:00 5,6 C 5,0 C 91 % 1001,6 hPa 0,0 l/m 2 min 0 min 0,0 UV-I 255 W/m 28,3 km/h (4 Bft)
01.03.2014 10:02 5,6 C 5,0 C 90 % 1001,5 hPa 0,0 l/m 2 min 0 min 0,0 UV-I 287 W/m 15,4 km/h (3 Bft)
01.03.2014 10:04 5,7 C 5,0 C 90 % 1001,5 hPa 0,0 l/m 2 min 0 min 0,0 UV-I 285 W/m 15,4 km/h (3 Bft)
01.03.2014 10:06 5,7 C 5,6 C 90 % 1001,6 hPa 0,0 l/m 2 min 0 min 0,0 UV-I 236 W/m 12,9 km/h (3 Bft)
01.03.2014 10:08 5,8 C 5,6 C 90 % 1001,4 hPa 0,0 l/m 2 min 0 min 0,0 UV-I 229 W/m 15,4 km/h (3 Bft)
01.03.2014 10:10 5,8 C 5,6 C 89 % 1001,5 hPa 0,0 l/m 2 min 0 min 0,0 UV-I 230 W/m 20,6 km/h (4 Bft)
01.03.2014 10:12 5,8 C 5,6 C 89 % 1001,5 hPa 0,0 l/m 0 min 0 min 0,0 UV-I 200 W/m 15,4 km/h (3 Bft)
01.03.2014 10:14 5,8 C 5,6 C 89 % 1001,4 hPa 0,0 l/m 2 min 0 min 0,0 UV-I 225 W/m 12,9 km/h (3 Bft)
01.03.2014 10:16 5,8 C 5,6 C 89 % 1001,5 hPa 0,0 l/m 2 min 0 min 0,0 UV-I 260 W/m 18,0 km/h (3 Bft)
01.03.2014 10:18 5,9 C 5,6 C 89 % 1001,5 hPa 0,0 l/m 2 min 0 min 0,0 UV-I 279 W/m 5,1 km/h (1 Bft)
01.03.2014 10:20 6,1 C 5,6 C 89 % 1001,4 hPa 0,0 l/m 2 min 0 min 0,0 UV-I 334 W/m 12,9 km/h (3 Bft)
01.03.2014 10:22 6,2 C 6,1 C 89 % 1001,3 hPa 0,0 l/m 2 min 0 min 0,0 UV-I 367 W/m 18,0 km/h (3 Bft)
01.03.2014 10:24 6,3 C 6,1 C 88 % 1001,3 hPa 0,0 l/m 2 min 0 min 0,0 UV-I 290 W/m 10,3 km/h (2 Bft)
01.03.2014 10:26 6,4 C 6,1 C 88 % 1001,3 hPa 0,0 l/m 2 min 0 min 0,0 UV-I 271 W/m 12,9 km/h (3 Bft)
01.03.2014 10:28 6,6 C 6,1 C 87 % 1001,3 hPa 0,0 l/m 2 min 0 min 0,0 UV-I 267 W/m 23,2 km/h (4 Bft)
01.03.2014 10:30 6,6 C 6,1 C 86 % 1001,3 hPa 0,0 l/m 2 min 0 min 0,0 UV-I 271 W/m 12,9 km/h (3 Bft)
01.03.2014 10:32 6,7 C 6,1 C 86 % 1001,2 hPa 0,0 l/m 2 min 0 min 0,0 UV-I 311 W/m 18,0 km/h (3 Bft)
01.03.2014 10:34 6,8 C 6,7 C 86 % 1001,3 hPa 0,0 l/m 2 min 0 min 0,0 UV-I 394 W/m 20,6 km/h (4 Bft)
01.03.2014 10:36 7,0 C 6,7 C 85 % 1001,2 hPa 0,0 l/m 2 min 0 min 0,0 UV-I 466 W/m 20,6 km/h (4 Bft)
01.03.2014 10:38 7,2 C 7,2 C 85 % 1001,2 hPa 0,0 l/m 2 min 0 min 0,0 UV-I 388 W/m 10,3 km/h (2 Bft)
01.03.2014 10:40 7,4 C 7,2 C 84 % 1001,2 hPa 0,0 l/m 2 min 0 min 0,0 UV-I 322 W/m 10,3 km/h (2 Bft)
01.03.2014 10:42 7,6 C 7,2 C 84 % 1001,2 hPa 0,0 l/m 2 min 0 min 0,0 UV-I 278 W/m 23,2 km/h (4 Bft)
01.03.2014 10:44 7,6 C 7,2 C 83 % 1001,2 hPa 0,0 l/m 2 min 0 min 0,0 UV-I 292 W/m 18,0 km/h (3 Bft)
01.03.2014 10:46 7,4 C 7,2 C 83 % 1001,2 hPa 0,0 l/m 2 min 0 min 0,0 UV-I 267 W/m 7,7 km/h (2 Bft)
01.03.2014 10:48 7,5 C 7,2 C 83 % 1001,2 hPa 0,0 l/m 2 min 0 min 0,0 UV-I 304 W/m 10,3 km/h (2 Bft)
01.03.2014 10:50 7,5 C 7,2 C 83 % 1001,2 hPa 0,0 l/m 2 min 0 min 0,0 UV-I 362 W/m 12,9 km/h (3 Bft)
01.03.2014 10:52 7,6 C 7,2 C 83 % 1001,2 hPa 0,0 l/m 2 min 0 min 0,0 UV-I 359 W/m 5,1 km/h (1 Bft)
01.03.2014 10:54 7,8 C 7,8 C 83 % 1001,2 hPa 0,0 l/m 2 min 0 min 0,0 UV-I 348 W/m 2,6 km/h (1 Bft)
01.03.2014 10:56 7,8 C 7,8 C 83 % 1001,2 hPa 0,0 l/m 2 min 0 min 0,0 UV-I 339 W/m 20,6 km/h (4 Bft)
01.03.2014 10:58 7,8 C 7,8 C 81 % 1001,3 hPa 0,0 l/m 2 min 0 min 0,0 UV-I 330 W/m 20,6 km/h (4 Bft)
01.03.2014 11:00 7,7 C 7,8 C 81 % 1001,3 hPa 0,0 l/m 2 min 0 min 0,0 UV-I 378 W/m 18,0 km/h (3 Bft)
01.03.2014 11:02 7,8 C 7,8 C 82 % 1001,2 hPa 0,0 l/m 2 min 0 min 0,0 UV-I 403 W/m 10,3 km/h (2 Bft)
01.03.2014 11:04 8,0 C 7,8 C 82 % 1001,2 hPa 0,0 l/m 2 min 0 min 0,0 UV-I 308 W/m 12,9 km/h (3 Bft)
01.03.2014 11:06 8,1 C 7,8 C 82 % 1001,2 hPa 0,0 l/m 2 min 0 min 0,0 UV-I 271 W/m 10,3 km/h (2 Bft)
01.03.2014 11:08 8,1 C 7,8 C 80 % 1001,2 hPa 0,0 l/m 2 min 0 min 0,0 UV-I 327 W/m 7,7 km/h (2 Bft)
01.03.2014 11:10 8,1 C 7,8 C 79 % 1001,2 hPa 0,0 l/m 2 min 0 min 0,0 UV-I 322 W/m 15,4 km/h (3 Bft)
01.03.2014 11:12 8,1 C 7,8 C 78 % 1001,2 hPa 0,0 l/m 2 min 0 min 0,0 UV-I 279 W/m 18,0 km/h (3 Bft)
01.03.2014 11:14 8,0 C 7,8 C 78 % 1001,2 hPa 0,0 l/m 2 min 0 min 0,0 UV-I 269 W/m 15,4 km/h (3 Bft)
01.03.2014 11:16 7,9 C 7,8 C 78 % 1001,2 hPa 0,0 l/m 2 min 0 min 0,0 UV-I 292 W/m 15,4 km/h (3 Bft)
01.03.2014 11:18 7,9 C 7,8 C 79 % 1001,1 hPa 0,0 l/m 2 min 0 min 0,0 UV-I 313 W/m 15,4 km/h (3 Bft)
01.03.2014 11:20 7,9 C 7,8 C 79 % 1001,1 hPa 0,0 l/m 2 min 0 min 0,0 UV-I 387 W/m 10,3 km/h (2 Bft)
01.03.2014 11:22 8,1 C 8,3 C 79 % 1001,0 hPa 0,0 l/m 2 min 0 min 0,5 UV-I 394 W/m 10,3 km/h (2 Bft)
01.03.2014 11:24 8,3 C 8,3 C 79 % 1001,0 hPa 0,0 l/m 2 min 0 min 0,0 UV-I 301 W/m 12,9 km/h (3 Bft)
01.03.2014 11:26 8,3 C 8,3 C 79 % 1001,0 hPa 0,0 l/m 0 min 0 min 0,0 UV-I 267 W/m 7,7 km/h (2 Bft)
01.03.2014 11:28 8,3 C 8,3 C 79 % 1000,9 hPa 0,0 l/m 2 min 0 min 0,5 UV-I 339 W/m 15,4 km/h (3 Bft)
01.03.2014 11:30 8,4 C 8,3 C 79 % 1001,0 hPa 0,0 l/m 2 min 0 min 0,7 UV-I 533 W/m 18,0 km/h (3 Bft)
01.03.2014 11:32 8,5 C 8,3 C 78 % 1000,9 hPa 0,0 l/m 2 min 0 min 0,8 UV-I 540 W/m 10,3 km/h (2 Bft)
01.03.2014 11:34 8,7 C 8,9 C 78 % 1000,9 hPa 0,0 l/m 2 min 0 min 0,8 UV-I 573 W/m 15,4 km/h (3 Bft)
01.03.2014 11:36 9,1 C 8,9 C 76 % 1000,8 hPa 0,0 l/m 2 min 0 min 0,9 UV-I 599 W/m 7,7 km/h (2 Bft)
01.03.2014 11:38 9,2 C 8,9 C 75 % 1000,8 hPa 0,0 l/m 2 min 0 min 0,8 UV-I 559 W/m 20,6 km/h (4 Bft)
01.03.2014 11:40 9,1 C 8,9 C 74 % 1000,9 hPa 0,0 l/m 2 min 0 min 0,8 UV-I 508 W/m 18,0 km/h (3 Bft)
01.03.2014 11:42 8,9 C 8,3 C 73 % 1000,9 hPa 0,0 l/m 0 min 0 min 0,0 UV-I 265 W/m 18,0 km/h (3 Bft)
01.03.2014 11:44 8,7 C 8,3 C 73 % 1000,9 hPa 0,0 l/m 0 min 0 min 0,0 UV-I 227 W/m 12,9 km/h (3 Bft)
01.03.2014 11:46 8,5 C 8,3 C 74 % 1000,8 hPa 0,0 l/m 0 min 0 min 0,0 UV-I 225 W/m 18,0 km/h (3 Bft)
01.03.2014 11:48 8,3 C 7,8 C 74 % 1000,9 hPa 0,0 l/m 0 min 0 min 0,0 UV-I 221 W/m 12,9 km/h (3 Bft)
01.03.2014 11:50 8,1 C 7,8 C 74 % 1000,7 hPa 0,0 l/m 0 min 0 min 0,0 UV-I 214 W/m 12,9 km/h (3 Bft)
01.03.2014 11:52 8,1 C 7,8 C 75 % 1000,7 hPa 0,0 l/m 0 min 0 min 0,0 UV-I 216 W/m 20,6 km/h (4 Bft)
01.03.2014 11:54 8,1 C 7,8 C 75 % 1000,7 hPa 0,0 l/m 0 min 0 min 0,0 UV-I 207 W/m 7,7 km/h (2 Bft)
01.03.2014 11:56 8,1 C 7,8 C 75 % 1000,7 hPa 0,0 l/m 0 min 0 min 0,0 UV-I 218 W/m 7,7 km/h (2 Bft)
01.03.2014 11:58 8,2 C 7,8 C 76 % 1000,6 hPa 0,0 l/m 0 min 0 min 0,0 UV-I 218 W/m 10,3 km/h (2 Bft)
01.03.2014 12:00 8,1 C 7,8 C 74 % 1000,7 hPa 0,0 l/m 0 min 0 min 0,0 UV-I 207 W/m 10,3 km/h (2 Bft)
01.03.2014 12:02 8,1 C 7,8 C 74 % 1000,6 hPa 0,0 l/m 0 min 0 min 0,0 UV-I 202 W/m 12,9 km/h (3 Bft)
01.03.2014 12:04 8,1 C 7,8 C 75 % 1000,7 hPa 0,0 l/m 0 min 0 min 0,0 UV-I 193 W/m 2,6 km/h (1 Bft)
01.03.2014 12:06 8,2 C 7,8 C 76 % 1000,6 hPa 0,0 l/m 0 min 0 min 0,0 UV-I 183 W/m 7,7 km/h (2 Bft)
01.03.2014 12:08 8,3 C 7,8 C 76 % 1000,7 hPa 0,0 l/m 0 min 0 min 0,0 UV-I 174 W/m 10,3 km/h (2 Bft)
01.03.2014 12:10 8,2 C 7,8 C 74 % 1000,7 hPa 0,0 l/m 0 min 0 min 0,0 UV-I 200 W/m 5,1 km/h (1 Bft)
01.03.2014 12:12 8,2 C 7,8 C 75 % 1000,7 hPa 0,0 l/m 0 min 0 min 0,0 UV-I 237 W/m 2,6 km/h (1 Bft)
01.03.2014 12:14 8,3 C 8,3 C 76 % 1000,6 hPa 0,0 l/m 0 min 0 min 0,0 UV-I 283 W/m 2,6 km/h (1 Bft)
01.03.2014 12:16 8,5 C 8,3 C 76 % 1000,6 hPa 0,0 l/m 2 min 0 min 0,0 UV-I 297 W/m 15,4 km/h (3 Bft)
01.03.2014 12:18 8,6 C 8,3 C 75 % 1000,6 hPa 0,0 l/m 2 min 0 min 0,0 UV-I 322 W/m 20,6 km/h (4 Bft)
01.03.2014 12:20 8,6 C 8,3 C 75 % 1000,6 hPa 0,0 l/m 2 min 0 min 0,0 UV-I 350 W/m 18,0 km/h (3 Bft)
01.03.2014 12:22 8,6 C 8,3 C 75 % 1000,6 hPa 0,0 l/m 2 min 0 min 0,5 UV-I 364 W/m 10,3 km/h (2 Bft)
01.03.2014 12:24 8,7 C 8,3 C 75 % 1000,6 hPa 0,0 l/m 2 min 0 min 0,0 UV-I 327 W/m 15,4 km/h (3 Bft)
01.03.2014 12:26 8,7 C 8,3 C 75 % 1000,6 hPa 0,0 l/m 2 min 0 min 0,0 UV-I 308 W/m 15,4 km/h (3 Bft)
01.03.2014 12:28 8,8 C 8,9 C 76 % 1000,6 hPa 0,0 l/m 2 min 0 min 0,0 UV-I 348 W/m 12,9 km/h (3 Bft)
01.03.2014 12:30 8,8 C 8,9 C 75 % 1000,5 hPa 0,0 l/m 2 min 0 min 0,0 UV-I 364 W/m 12,9 km/h (3 Bft)
01.03.2014 12:32 8,8 C 8,9 C 75 % 1000,5 hPa 0,0 l/m 2 min 0 min 0,0 UV-I 338 W/m 12,9 km/h (3 Bft)
01.03.2014 12:34 8,8 C 8,3 C 75 % 1000,6 hPa 0,0 l/m 2 min 0 min 0,0 UV-I 290 W/m 12,9 km/h (3 Bft)
01.03.2014 12:36 8,8 C 8,3 C 75 % 1000,6 hPa 0,0 l/m 2 min 0 min 0,0 UV-I 309 W/m 15,4 km/h (3 Bft)
01.03.2014 12:38 8,7 C 8,3 C 74 % 1000,5 hPa 0,0 l/m 0 min 0 min 0,0 UV-I 204 W/m 10,3 km/h (2 Bft)
01.03.2014 12:40 8,7 C 8,3 C 74 % 1000,6 hPa 0,0 l/m 0 min 0 min 0,0 UV-I 186 W/m 7,7 km/h (2 Bft)
01.03.2014 12:42 8,6 C 8,3 C 75 % 1000,5 hPa 0,0 l/m 0 min 0 min 0,0 UV-I 186 W/m 12,9 km/h (3 Bft)
01.03.2014 12:44 8,5 C 7,8 C 75 % 1000,5 hPa 0,0 l/m 0 min 0 min 0,0 UV-I 207 W/m 18,0 km/h (3 Bft)
01.03.2014 12:46 8,5 C 7,8 C 76 % 1000,5 hPa 0,0 l/m 2 min 0 min 0,0 UV-I 306 W/m 18,0 km/h (3 Bft)
01.03.2014 12:48 8,5 C 7,8 C 75 % 1000,5 hPa 0,0 l/m 0 min 0 min 0,0 UV-I 239 W/m 18,0 km/h (3 Bft)
01.03.2014 12:50 8,5 C 8,3 C 75 % 1000,4 hPa 0,0 l/m 0 min 0 min 0,0 UV-I 255 W/m 25,7 km/h (4 Bft)
01.03.2014 12:52 8,5 C 8,3 C 75 % 1000,5 hPa 0,0 l/m 0 min 0 min 0,0 UV-I 257 W/m 20,6 km/h (4 Bft)
01.03.2014 12:54 8,6 C 8,3 C 76 % 1000,4 hPa 0,0 l/m 0 min 0 min 0,0 UV-I 234 W/m 18,0 km/h (3 Bft)
01.03.2014 12:56 8,6 C 8,3 C 75 % 1000,4 hPa 0,0 l/m 2 min 0 min 0,6 UV-I 325 W/m 18,0 km/h (3 Bft)
01.03.2014 12:58 8,6 C 8,3 C 76 % 1000,4 hPa 0,0 l/m 2 min 0 min 0,7 UV-I 397 W/m 12,9 km/h (3 Bft)
01.03.2014 13:00 8,7 C 8,3 C 76 % 1000,5 hPa 0,0 l/m 2 min 0 min 0,7 UV-I 420 W/m 7,7 km/h (2 Bft)
01.03.2014 13:02 8,9 C 8,3 C 75 % 1000,5 hPa 0,0 l/m 2 min 0 min 0,7 UV-I 432 W/m 12,9 km/h (3 Bft)
01.03.2014 13:04 9,0 C 8,3 C 74 % 1000,4 hPa 0,0 l/m 0 min 0 min 0,5 UV-I 262 W/m 10,3 km/h (2 Bft)
01.03.2014 13:06 9,0 C 8,3 C 74 % 1000,4 hPa 0,0 l/m 2 min 0 min 0,7 UV-I 383 W/m 15,4 km/h (3 Bft)
01.03.2014 13:08 9,1 C 8,3 C 75 % 1000,4 hPa 0,0 l/m 2 min 0 min 0,6 UV-I 336 W/m 20,6 km/h (4 Bft)
01.03.2014 13:10 8,9 C 8,3 C 74 % 1000,4 hPa 0,0 l/m 0 min 0 min 0,0 UV-I 221 W/m 18,0 km/h (3 Bft)
01.03.2014 13:12 8,9 C 8,3 C 75 % 1000,4 hPa 0,0 l/m 0 min 0 min 0,5 UV-I 221 W/m 10,3 km/h (2 Bft)
01.03.2014 13:14 8,9 C 8,3 C 75 % 1000,4 hPa 0,0 l/m 0 min 0 min 0,0 UV-I 234 W/m 12,9 km/h (3 Bft)
01.03.2014 13:16 8,9 C 8,3 C 74 % 1000,5 hPa 0,0 l/m 0 min 0 min 0,0 UV-I 207 W/m 12,9 km/h (3 Bft)
01.03.2014 13:18 8,8 C 8,3 C 75 % 1000,5 hPa 0,0 l/m 0 min 0 min 0,0 UV-I 227 W/m 10,3 km/h (2 Bft)
01.03.2014 13:20 8,7 C 8,3 C 75 % 1000,4 hPa 0,0 l/m 0 min 0 min 0,0 UV-I 239 W/m 12,9 km/h (3 Bft)
01.03.2014 13:22 8,7 C 8,3 C 75 % 1000,4 hPa 0,0 l/m 2 min 0 min 0,0 UV-I 345 W/m 7,7 km/h (2 Bft)
01.03.2014 13:24 8,7 C 8,3 C 76 % 1000,5 hPa 0,0 l/m 0 min 0 min 0,0 UV-I 220 W/m 15,4 km/h (3 Bft)
01.03.2014 13:26 8,6 C 8,3 C 76 % 1000,4 hPa 0,0 l/m 0 min 0 min 0,0 UV-I 229 W/m 12,9 km/h (3 Bft)
01.03.2014 13:28 8,6 C 8,3 C 76 % 1000,4 hPa 0,0 l/m 0 min 0 min 0,0 UV-I 227 W/m 15,4 km/h (3 Bft)
01.03.2014 13:30 8,6 C 8,3 C 76 % 1000,4 hPa 0,0 l/m 0 min 0 min 0,0 UV-I 272 W/m 12,9 km/h (3 Bft)
01.03.2014 13:32 8,6 C 8,3 C 76 % 1000,4 hPa 0,0 l/m 2 min 0 min 0,0 UV-I 322 W/m 10,3 km/h (2 Bft)
01.03.2014 13:34 8,7 C 8,9 C 77 % 1000,4 hPa 0,0 l/m 2 min 0 min 0,0 UV-I 345 W/m 15,4 km/h (3 Bft)
01.03.2014 13:36 8,8 C 8,9 C 77 % 1000,4 hPa 0,0 l/m 0 min 0 min 0,5 UV-I 279 W/m 18,0 km/h (3 Bft)
01.03.2014 13:38 8,9 C 8,9 C 77 % 1000,4 hPa 0,0 l/m 0 min 0 min 0,0 UV-I 278 W/m 18,0 km/h (3 Bft)
01.03.2014 13:40 9,0 C 8,9 C 76 % 1000,4 hPa 0,0 l/m 2 min 0 min 0,7 UV-I 443 W/m 20,6 km/h (4 Bft)
01.03.2014 13:42 9,0 C 9,4 C 75 % 1000,4 hPa 0,0 l/m 2 min 0 min 0,6 UV-I 401 W/m 20,6 km/h (4 Bft)
01.03.2014 13:44 9,2 C 9,4 C 76 % 1000,4 hPa 0,0 l/m 2 min 0 min 0,9 UV-I 573 W/m 12,9 km/h (3 Bft)
01.03.2014 13:46 9,5 C 9,4 C 77 % 1000,4 hPa 0,0 l/m 2 min 0 min 0,9 UV-I 580 W/m 10,3 km/h (2 Bft)
01.03.2014 13:48 9,7 C 9,4 C 74 % 1000,4 hPa 0,0 l/m 2 min 0 min 0,7 UV-I 570 W/m 10,3 km/h (2 Bft)
01.03.2014 13:50 9,7 C 9,4 C 73 % 1000,4 hPa 0,0 l/m 2 min 0 min 0,6 UV-I 278 W/m 5,1 km/h (1 Bft)
01.03.2014 13:52 9,7 C 9,4 C 74 % 1000,4 hPa 0,0 l/m 2 min 0 min 0,5 UV-I 427 W/m 12,9 km/h (3 Bft)
01.03.2014 13:54 9,7 C 9,4 C 74 % 1000,4 hPa 0,0 l/m 2 min 0 min 1,0 UV-I 427 W/m 7,7 km/h (2 Bft)
01.03.2014 13:56 9,7 C 9,4 C 73 % 1000,3 hPa 0,0 l/m 2 min 0 min 1,0 UV-I 636 W/m 18,0 km/h (3 Bft)
01.03.2014 13:58 9,8 C 9,4 C 73 % 1000,3 hPa 0,0 l/m 2 min 0 min 1,0 UV-I 636 W/m 15,4 km/h (3 Bft)
01.03.2014 14:00 9,8 C 9,4 C 72 % 1000,2 hPa 0,0 l/m 2 min 0 min 0,6 UV-I 707 W/m 12,9 km/h (3 Bft)
01.03.2014 14:02 10,0 C 10,0 C 73 % 1000,2 hPa 0,0 l/m 2 min 0 min 1,0 UV-I 712 W/m 15,4 km/h (3 Bft)
01.03.2014 14:04 10,3 C 10,0 C 73 % 1000,1 hPa 0,0 l/m 2 min 0 min 1,0 UV-I 687 W/m 15,4 km/h (3 Bft)
01.03.2014 14:06 10,5 C 10,6 C 71 % 1000,2 hPa 0,0 l/m 2 min 0 min 0,9 UV-I 687 W/m 18,0 km/h (3 Bft)
01.03.2014 14:08 10,4 C 10,6 C 71 % 1000,2 hPa 0,0 l/m 2 min 0 min 0,5 UV-I 308 W/m 12,9 km/h (3 Bft)
01.03.2014 14:10 10,3 C 10,6 C 71 % 1000,1 hPa 0,0 l/m 2 min 0 min 0,9 UV-I 323 W/m 7,7 km/h (2 Bft)
01.03.2014 14:12 10,4 C 10,6 C 72 % 1000,1 hPa 0,0 l/m 2 min 0 min 0,5 UV-I 343 W/m 12,9 km/h (3 Bft)
01.03.2014 14:14 10,4 C 10,6 C 72 % 1000,1 hPa 0,0 l/m 2 min 0 min 0,9 UV-I 700 W/m 23,2 km/h (4 Bft)
01.03.2014 14:16 10,6 C 10,6 C 72 % 1000,1 hPa 0,0 l/m 2 min 0 min 0,9 UV-I 654 W/m 15,4 km/h (3 Bft)
01.03.2014 14:18 10,7 C 10,6 C 71 % 1000,1 hPa 0,0 l/m 2 min 0 min 0,9 UV-I 629 W/m 12,9 km/h (3 Bft)
01.03.2014 14:20 10,7 C 10,6 C 71 % 1000,1 hPa 0,0 l/m 2 min 0 min 0,0 UV-I 589 W/m 7,7 km/h (2 Bft)
01.03.2014 14:22 10,6 C 10,0 C 70 % 1000,0 hPa 0,0 l/m 0 min 0 min 0,0 UV-I 200 W/m 12,9 km/h (3 Bft)
01.03.2014 14:24 10,3 C 9,4 C 71 % 1000,0 hPa 0,0 l/m 0 min 0 min 0,0 UV-I 163 W/m 12,9 km/h (3 Bft)
01.03.2014 14:26 10,1 C 9,4 C 71 % 1000,1 hPa 0,0 l/m 0 min 0 min 0,0 UV-I 155 W/m 18,0 km/h (3 Bft)
01.03.2014 14:28 9,9 C 8,9 C 72 % 1000,0 hPa 0,0 l/m 0 min 0 min 0,0 UV-I 144 W/m 23,2 km/h (4 Bft)
01.03.2014 14:30 9,6 C 8,9 C 72 % 1000,0 hPa 0,0 l/m 0 min 0 min 0,0 UV-I 134 W/m 18,0 km/h (3 Bft)
01.03.2014 14:32 9,3 C 8,9 C 73 % 999,9 hPa 0,0 l/m 0 min 0 min 0,0 UV-I 132 W/m 18,0 km/h (3 Bft)
01.03.2014 14:34 9,2 C 8,3 C 74 % 1000,0 hPa 0,0 l/m 0 min 0 min 0,0 UV-I 123 W/m 15,4 km/h (3 Bft)
01.03.2014 14:36 9,1 C 8,3 C 74 % 1000,0 hPa 0,0 l/m 0 min 0 min 0,0 UV-I 93 W/m 12,9 km/h (3 Bft)
01.03.2014 14:38 9,1 C 8,3 C 75 % 1000,0 hPa 0,0 l/m 0 min 0 min 0,0 UV-I 77 W/m 20,6 km/h (4 Bft)
01.03.2014 14:40 8,9 C 7,8 C 75 % 1000,0 hPa 0,0 l/m 0 min 0 min 0,0 UV-I 65 W/m 10,3 km/h (2 Bft)
01.03.2014 14:42 8,8 C 7,8 C 75 % 999,9 hPa 0,0 l/m 0 min 0 min 0,0 UV-I 53 W/m 18,0 km/h (3 Bft)
01.03.2014 14:44 8,7 C 7,8 C 75 % 999,9 hPa 0,0 l/m 0 min 0 min 0,0 UV-I 47 W/m 10,3 km/h (2 Bft)
01.03.2014 14:46 8,6 C 7,2 C 76 % 1000,0 hPa 0,0 l/m 0 min 0 min 0,0 UV-I 44 W/m 15,4 km/h (3 Bft)
01.03.2014 14:48 8,6 C 7,2 C 76 % 1000,0 hPa 0,0 l/m 0 min 0 min 0,0 UV-I 39 W/m 10,3 km/h (2 Bft)
01.03.2014 14:50 8,5 C 7,2 C 77 % 999,9 hPa 0,0 l/m 0 min 0 min 0,0 UV-I 35 W/m 12,9 km/h (3 Bft)
01.03.2014 14:52 8,5 C 7,2 C 78 % 1000,0 hPa 0,0 l/m 0 min 2 min 0,0 UV-I 32 W/m 12,9 km/h (3 Bft)
01.03.2014 14:54 8,4 C 6,7 C 78 % 1000,0 hPa 0,0 l/m 0 min 2 min 0,0 UV-I 32 W/m 15,4 km/h (3 Bft)
01.03.2014 14:56 8,4 C 6,7 C 78 % 1000,0 hPa 0,0 l/m 0 min 2 min 0,0 UV-I 33 W/m 12,9 km/h (3 Bft)
01.03.2014 14:58 8,3 C 6,1 C 79 % 1000,0 hPa 0,0 l/m 0 min 2 min 0,0 UV-I 32 W/m 7,7 km/h (2 Bft)
01.03.2014 15:00 8,2 C 6,1 C 80 % 1000,0 hPa 0,0 l/m 0 min 2 min 0,0 UV-I 33 W/m 7,7 km/h (2 Bft)
01.03.2014 15:02 8,1 C 6,1 C 80 % 1000,0 hPa 0,0 l/m 0 min 2 min 0,0 UV-I 35 W/m 18,0 km/h (3 Bft)
01.03.2014 15:04 8,1 C 5,6 C 80 % 1000,0 hPa 0,0 l/m 0 min 2 min 0,0 UV-I 35 W/m 12,9 km/h (3 Bft)
01.03.2014 15:06 7,9 C 5,6 C 81 % 1000,0 hPa 0,0 l/m 0 min 2 min 0,0 UV-I 33 W/m 12,9 km/h (3 Bft)
01.03.2014 15:08 7,9 C 5,6 C 81 % 1000,0 hPa 0,0 l/m 0 min 2 min 0,0 UV-I 30 W/m 15,4 km/h (3 Bft)
01.03.2014 15:10 7,9 C 5,6 C 81 % 1000,1 hPa 0,0 l/m 0 min 2 min 0,0 UV-I 25 W/m 23,2 km/h (4 Bft)
01.03.2014 15:12 7,8 C 5,6 C 81 % 1000,0 hPa 0,0 l/m 0 min 2 min 0,0 UV-I 21 W/m 12,9 km/h (3 Bft)
01.03.2014 15:14 7,7 C 5,6 C 82 % 1000,0 hPa 0,0 l/m 0 min 2 min 0,0 UV-I 23 W/m 15,4 km/h (3 Bft)
01.03.2014 15:16 7,7 C 5,6 C 82 % 1000,0 hPa 0,0 l/m 0 min 2 min 0,0 UV-I 21 W/m 10,3 km/h (2 Bft)
01.03.2014 15:18 7,7 C 5,6 C 82 % 1000,0 hPa 0,0 l/m 0 min 2 min 0,0 UV-I 19 W/m 12,9 km/h (3 Bft)
01.03.2014 15:20 7,6 C 5,6 C 82 % 1000,0 hPa 0,0 l/m 0 min 2 min 0,0 UV-I 18 W/m 10,3 km/h (2 Bft)
01.03.2014 15:22 7,6 C 5,6 C 83 % 1000,1 hPa 0,0 l/m 0 min 2 min 0,0 UV-I 18 W/m 2,6 km/h (1 Bft)
01.03.2014 15:24 7,5 C 5,0 C 84 % 1000,2 hPa 0,4 l/m 0 min 2 min 0,0 UV-I 23 W/m 7,7 km/h (2 Bft)
01.03.2014 15:26 7,3 C 3,9 C 84 % 1000,2 hPa 0,8 l/m 0 min 2 min 0,0 UV-I 42 W/m 0,0 km/h (0 Bft)
01.03.2014 15:28 7,0 C 3,3 C 85 % 1000,0 hPa 0,4 l/m 0 min 2 min 0,0 UV-I 54 W/m 2,6 km/h (1 Bft)
01.03.2014 15:30 6,7 C 3,3 C 85 % 1000,0 hPa 0,2 l/m 0 min 2 min 0,0 UV-I 65 W/m 0,0 km/h (0 Bft)
01.03.2014 15:32 6,5 C 3,9 C 85 % 1000,0 hPa 0,0 l/m 0 min 2 min 0,0 UV-I 83 W/m 0,0 km/h (0 Bft)
01.03.2014 15:34 6,4 C 3,9 C 87 % 999,9 hPa 0,0 l/m 0 min 2 min 0,0 UV-I 91 W/m 0,0 km/h (0 Bft)
01.03.2014 15:36 6,4 C 4,4 C 87 % 999,9 hPa 0,2 l/m 0 min 0 min 0,0 UV-I 95 W/m 0,0 km/h (0 Bft)
01.03.2014 15:38 6,4 C 4,4 C 88 % 999,9 hPa 0,0 l/m 0 min 2 min 0,0 UV-I 95 W/m 2,6 km/h (1 Bft)
01.03.2014 15:40 6,5 C 4,4 C 89 % 999,9 hPa 0,0 l/m 0 min 0 min 0,0 UV-I 91 W/m 0,0 km/h (0 Bft)
01.03.2014 15:42 6,6 C 5,0 C 89 % 999,9 hPa 0,0 l/m 0 min 0 min 0,0 UV-I 84 W/m 0,0 km/h (0 Bft)
01.03.2014 15:44 6,7 C 5,0 C 89 % 999,9 hPa 0,0 l/m 0 min 0 min 0,0 UV-I 83 W/m 0,0 km/h (0 Bft)
01.03.2014 15:46 6,8 C 5,0 C 90 % 999,9 hPa 0,0 l/m 0 min 0 min 0,0 UV-I 83 W/m 0,0 km/h (0 Bft)
01.03.2014 15:48 6,8 C 5,0 C 90 % 999,9 hPa 0,0 l/m 0 min 0 min 0,0 UV-I 79 W/m 0,0 km/h (0 Bft)
01.03.2014 15:50 6,8 C 5,0 C 90 % 999,9 hPa 0,0 l/m 0 min 0 min 0,0 UV-I 76 W/m 0,0 km/h (0 Bft)
01.03.2014 15:52 6,9 C 5,0 C 90 % 999,9 hPa 0,0 l/m 0 min 0 min 0,0 UV-I 74 W/m 0,0 km/h (0 Bft)
01.03.2014 15:54 6,9 C 5,0 C 90 % 999,9 hPa 0,0 l/m 0 min 0 min 0,0 UV-I 77 W/m 5,1 km/h (1 Bft)
01.03.2014 15:56 7,0 C 5,6 C 90 % 999,9 hPa 0,0 l/m 0 min 0 min 0,0 UV-I 79 W/m 0,0 km/h (0 Bft)
01.03.2014 15:58 7,0 C 5,6 C 91 % 999,9 hPa 0,0 l/m 0 min 0 min 0,0 UV-I 81 W/m 5,1 km/h (1 Bft)
01.03.2014 16:00 7,1 C 5,6 C 91 % 999,8 hPa 0,0 l/m 0 min 0 min 0,0 UV-I 79 W/m 0,0 km/h (0 Bft)
01.03.2014 16:02 7,2 C 5,6 C 91 % 999,8 hPa 0,0 l/m 0 min 0 min 0,0 UV-I 76 W/m 0,0 km/h (0 Bft)
01.03.2014 16:04 7,2 C 5,6 C 91 % 999,9 hPa 0,0 l/m 0 min 0 min 0,0 UV-I 70 W/m 0,0 km/h (0 Bft)
01.03.2014 16:06 7,2 C 5,6 C 91 % 999,9 hPa 0,0 l/m 0 min 0 min 0,0 UV-I 60 W/m 0,0 km/h (0 Bft)
01.03.2014 16:08 7,2 C 5,6 C 91 % 999,8 hPa 0,2 l/m 0 min 0 min 0,0 UV-I 54 W/m 5,1 km/h (1 Bft)
01.03.2014 16:10 7,2 C 5,6 C 91 % 999,8 hPa 0,0 l/m 0 min 0 min 0,0 UV-I 47 W/m 7,7 km/h (2 Bft)
01.03.2014 16:12 7,2 C 5,6 C 91 % 999,8 hPa 0,0 l/m 0 min 0 min 0,0 UV-I 47 W/m 0,0 km/h (0 Bft)
01.03.2014 16:14 7,2 C 5,6 C 91 % 999,8 hPa 0,0 l/m 0 min 0 min 0,0 UV-I 47 W/m 7,7 km/h (2 Bft)
01.03.2014 16:16 7,2 C 5,6 C 91 % 999,8 hPa 0,0 l/m 0 min 0 min 0,0 UV-I 49 W/m 0,0 km/h (0 Bft)
01.03.2014 16:18 7,2 C 5,6 C 91 % 999,8 hPa 0,0 l/m 0 min 0 min 0,0 UV-I 51 W/m 0,0 km/h (0 Bft)
01.03.2014 16:20 7,2 C 5,6 C 91 % 999,8 hPa 0,0 l/m 0 min 0 min 0,0 UV-I 53 W/m 7,7 km/h (2 Bft)
01.03.2014 16:22 7,2 C 5,6 C 91 % 999,7 hPa 0,0 l/m 0 min 0 min 0,0 UV-I 54 W/m 2,6 km/h (1 Bft)
01.03.2014 16:24 7,2 C 5,6 C 90 % 999,8 hPa 0,0 l/m 0 min 0 min 0,0 UV-I 56 W/m 7,7 km/h (2 Bft)
01.03.2014 16:26 7,2 C 5,6 C 90 % 999,8 hPa 0,0 l/m 0 min 0 min 0,0 UV-I 56 W/m 5,1 km/h (1 Bft)
01.03.2014 16:28 7,2 C 5,6 C 90 % 999,7 hPa 0,0 l/m 0 min 0 min 0,0 UV-I 53 W/m 0,0 km/h (0 Bft)
01.03.2014 16:30 7,2 C 5,6 C 90 % 999,7 hPa 0,0 l/m 0 min 0 min 0,0 UV-I 51 W/m 0,0 km/h (0 Bft)
01.03.2014 16:32 7,2 C 5,6 C 90 % 999,8 hPa 0,0 l/m 0 min 0 min 0,0 UV-I 51 W/m 0,0 km/h (0 Bft)
01.03.2014 16:34 7,2 C 5,6 C 90 % 999,7 hPa 0,0 l/m 0 min 0 min 0,0 UV-I 49 W/m 0,0 km/h (0 Bft)
01.03.2014 16:36 7,2 C 5,6 C 90 % 999,7 hPa 0,0 l/m 0 min 0 min 0,0 UV-I 51 W/m 0,0 km/h (0 Bft)
01.03.2014 16:38 7,2 C 5,6 C 90 % 999,7 hPa 0,0 l/m 0 min 0 min 0,0 UV-I 51 W/m 0,0 km/h (0 Bft)
01.03.2014 16:40 7,2 C 5,6 C 89 % 999,7 hPa 0,0 l/m 0 min 0 min 0,0 UV-I 53 W/m 0,0 km/h (0 Bft)
01.03.2014 16:42 7,3 C 5,6 C 89 % 999,7 hPa 0,0 l/m 0 min 0 min 0,0 UV-I 53 W/m 0,0 km/h (0 Bft)
01.03.2014 16:44 7,2 C 5,6 C 90 % 999,7 hPa 0,0 l/m 0 min 0 min 0,0 UV-I 53 W/m 0,0 km/h (0 Bft)
01.03.2014 16:46 7,2 C 5,6 C 90 % 999,8 hPa 0,0 l/m 0 min 0 min 0,0 UV-I 53 W/m 0,0 km/h (0 Bft)
01.03.2014 16:48 7,2 C 5,6 C 90 % 999,8 hPa 0,0 l/m 0 min 0 min 0,0 UV-I 53 W/m 0,0 km/h (0 Bft)
01.03.2014 16:50 7,2 C 5,6 C 90 % 999,8 hPa 0,0 l/m 0 min 0 min 0,0 UV-I 51 W/m 0,0 km/h (0 Bft)
01.03.2014 16:52 7,2 C 5,6 C 90 % 999,8 hPa 0,0 l/m 0 min 0 min 0,0 UV-I 51 W/m 0,0 km/h (0 Bft)
01.03.2014 16:54 7,2 C 5,6 C 90 % 999,8 hPa 0,0 l/m 0 min 0 min 0,0 UV-I 53 W/m 0,0 km/h (0 Bft)
01.03.2014 16:56 7,2 C 5,6 C 90 % 999,8 hPa 0,0 l/m 0 min 0 min 0,0 UV-I 54 W/m 0,0 km/h (0 Bft)
01.03.2014 16:58 7,3 C 5,6 C 90 % 999,8 hPa 0,0 l/m 0 min 0 min 0,0 UV-I 58 W/m 0,0 km/h (0 Bft)
01.03.2014 17:00 7,3 C 5,6 C 89 % 999,8 hPa 0,0 l/m 0 min 0 min 0,0 UV-I 58 W/m 12,9 km/h (3 Bft)
01.03.2014 17:02 7,3 C 5,6 C 89 % 999,8 hPa 0,0 l/m 0 min 0 min 0,0 UV-I 56 W/m 5,1 km/h (1 Bft)
01.03.2014 17:04 7,3 C 5,6 C 88 % 999,8 hPa 0,0 l/m 0 min 0 min 0,0 UV-I 54 W/m 5,1 km/h (1 Bft)
01.03.2014 17:06 7,3 C 5,0 C 88 % 999,9 hPa 0,0 l/m 0 min 0 min 0,0 UV-I 53 W/m 0,0 km/h (0 Bft)
01.03.2014 17:08 7,3 C 5,0 C 88 % 999,9 hPa 0,0 l/m 0 min 0 min 0,0 UV-I 51 W/m 0,0 km/h (0 Bft)
01.03.2014 17:10 7,2 C 5,0 C 88 % 999,9 hPa 0,0 l/m 0 min 0 min 0,0 UV-I 47 W/m 7,7 km/h (2 Bft)
01.03.2014 17:12 7,2 C 5,0 C 87 % 999,9 hPa 0,0 l/m 0 min 0 min 0,0 UV-I 44 W/m 10,3 km/h (2 Bft)
01.03.2014 17:14 7,2 C 5,0 C 87 % 999,9 hPa 0,0 l/m 0 min 0 min 0,0 UV-I 44 W/m 12,9 km/h (3 Bft)
01.03.2014 17:16 7,2 C 5,0 C 86 % 999,9 hPa 0,0 l/m 0 min 0 min 0,0 UV-I 42 W/m 10,3 km/h (2 Bft)
01.03.2014 17:18 7,2 C 5,0 C 85 % 999,9 hPa 0,0 l/m 0 min 0 min 0,0 UV-I 40 W/m 15,4 km/h (3 Bft)
01.03.2014 17:20 7,2 C 5,0 C 86 % 999,9 hPa 0,0 l/m 0 min 0 min 0,0 UV-I 37 W/m 2,6 km/h (1 Bft)
01.03.2014 17:22 7,2 C 5,0 C 86 % 1000,0 hPa 0,0 l/m 0 min 0 min 0,0 UV-I 35 W/m 12,9 km/h (3 Bft)
01.03.2014 17:24 7,2 C 5,0 C 85 % 1000,0 hPa 0,0 l/m 0 min 0 min 0,0 UV-I 33 W/m 7,7 km/h (2 Bft)
01.03.2014 17:26 7,2 C 4,4 C 85 % 1000,0 hPa 0,0 l/m 0 min 0 min 0,0 UV-I 28 W/m 7,7 km/h (2 Bft)
01.03.2014 17:28 7,2 C 4,4 C 84 % 999,9 hPa 0,0 l/m 0 min 0 min 0,0 UV-I 26 W/m 0,0 km/h (0 Bft)
01.03.2014 17:30 7,2 C 4,4 C 84 % 999,9 hPa 0,0 l/m 0 min 0 min 0,0 UV-I 25 W/m 5,1 km/h (1 Bft)
01.03.2014 17:32 7,1 C 4,4 C 83 % 1000,0 hPa 0,0 l/m 0 min 0 min 0,0 UV-I 23 W/m 5,1 km/h (1 Bft)
01.03.2014 17:34 7,1 C 4,4 C 83 % 1000,0 hPa 0,0 l/m 0 min 0 min 0,0 UV-I 19 W/m 0,0 km/h (0 Bft)
01.03.2014 17:36 7,1 C 4,4 C 83 % 1000,0 hPa 0,0 l/m 0 min 0 min 0,0 UV-I 18 W/m 7,7 km/h (2 Bft)
01.03.2014 17:38 7,0 C 4,4 C 83 % 1000,0 hPa 0,0 l/m 0 min 0 min 0,0 UV-I 14 W/m 5,1 km/h (1 Bft)
01.03.2014 17:40 6,9 C 4,4 C 84 % 1000,0 hPa 0,0 l/m 0 min 0 min 0,0 UV-I 12 W/m 7,7 km/h (2 Bft)
01.03.2014 17:42 6,8 C 3,9 C 83 % 1000,0 hPa 0,0 l/m 0 min 0 min 0,0 UV-I 12 W/m 12,9 km/h (3 Bft)
01.03.2014 17:44 6,8 C 3,9 C 83 % 1000,1 hPa 0,0 l/m 0 min 0 min 0,0 UV-I 12 W/m 12,9 km/h (3 Bft)
01.03.2014 17:46 6,8 C 3,9 C 83 % 1000,1 hPa 0,0 l/m 0 min 0 min 0,0 UV-I 12 W/m 0,0 km/h (0 Bft)
01.03.2014 17:48 6,7 C 3,9 C 83 % 1000,1 hPa 0,0 l/m 0 min 0 min 0,0 UV-I 12 W/m 5,1 km/h (1 Bft)
01.03.2014 17:50 6,7 C 3,9 C 83 % 1000,2 hPa 0,0 l/m 0 min 0 min 0,0 UV-I 11 W/m 2,6 km/h (1 Bft)
01.03.2014 17:52 6,7 C 3,9 C 83 % 1000,3 hPa 0,0 l/m 0 min 0 min 0,0 UV-I 9 W/m 18,0 km/h (3 Bft)
01.03.2014 17:54 6,7 C 3,9 C 83 % 1000,3 hPa 0,0 l/m 0 min 0 min 0,0 UV-I 9 W/m 0,0 km/h (0 Bft)
01.03.2014 17:56 6,7 C 3,9 C 83 % 1000,3 hPa 0,0 l/m 0 min 0 min 0,0 UV-I 9 W/m 5,1 km/h (1 Bft)
01.03.2014 17:58 6,6 C 3,9 C 83 % 1000,3 hPa 0,0 l/m 0 min 0 min 0,0 UV-I 7 W/m 5,1 km/h (1 Bft)
01.03.2014 18:00 6,4 C 3,9 C 84 % 1000,3 hPa 0,0 l/m 0 min 0 min 0,0 UV-I 5 W/m 0,0 km/h (0 Bft)
01.03.2014 18:02 6,4 C 3,9 C 85 % 1000,3 hPa 0,0 l/m 0 min 0 min 0,0 UV-I 5 W/m 0,0 km/h (0 Bft)
01.03.2014 18:04 6,4 C 3,9 C 85 % 1000,3 hPa 0,0 l/m 0 min 0 min 0,0 UV-I 5 W/m 0,0 km/h (0 Bft)
01.03.2014 18:06 6,3 C 3,9 C 85 % 1000,3 hPa 0,0 l/m 0 min 0 min 0,0 UV-I 5 W/m 0,0 km/h (0 Bft)
01.03.2014 18:08 6,3 C 3,9 C 85 % 1000,3 hPa 0,0 l/m 0 min 0 min 0,0 UV-I 5 W/m 0,0 km/h (0 Bft)
01.03.2014 18:10 6,2 C 3,9 C 85 % 1000,3 hPa 0,0 l/m 0 min 0 min 0,0 UV-I 5 W/m 0,0 km/h (0 Bft)
01.03.2014 18:12 6,2 C 3,9 C 85 % 1000,2 hPa 0,0 l/m 0 min 0 min 0,0 UV-I 0 W/m 0,0 km/h (0 Bft)
01.03.2014 18:14 6,2 C 3,9 C 85 % 1000,2 hPa 0,0 l/m 0 min 0 min 0,0 UV-I 0 W/m 0,0 km/h (0 Bft)
01.03.2014 18:16 6,1 C 3,9 C 86 % 1000,2 hPa 0,0 l/m 0 min 0 min 0,0 UV-I 0 W/m 0,0 km/h (0 Bft)
01.03.2014 18:18 6,1 C 3,3 C 86 % 1000,2 hPa 0,0 l/m 0 min 0 min 0,0 UV-I 0 W/m 0,0 km/h (0 Bft)
01.03.2014 18:20 6,0 C 3,9 C 86 % 1000,1 hPa 0,0 l/m 0 min 0 min 0,0 UV-I 0 W/m 0,0 km/h (0 Bft)
01.03.2014 18:22 5,9 C 3,3 C 87 % 1000,1 hPa 0,0 l/m 0 min 0 min 0,0 UV-I 0 W/m 0,0 km/h (0 Bft)
01.03.2014 18:24 5,9 C 3,3 C 87 % 1000,0 hPa 0,0 l/m 0 min 0 min 0,0 UV-I 0 W/m 0,0 km/h (0 Bft)
01.03.2014 18:26 5,8 C 3,3 C 87 % 1000,1 hPa 0,0 l/m 0 min 0 min 0,0 UV-I 0 W/m 0,0 km/h (0 Bft)
01.03.2014 18:28 5,8 C 3,3 C 88 % 1000,2 hPa 0,0 l/m 0 min 0 min 0,0 UV-I 0 W/m 0,0 km/h (0 Bft)
01.03.2014 18:30 5,8 C 3,3 C 88 % 1000,2 hPa 0,0 l/m 0 min 0 min 0,0 UV-I 0 W/m 0,0 km/h (0 Bft)
01.03.2014 18:32 5,7 C 3,3 C 88 % 1000,2 hPa 0,0 l/m 0 min 0 min 0,0 UV-I 0 W/m 0,0 km/h (0 Bft)
01.03.2014 18:34 5,7 C 2,8 C 88 % 1000,2 hPa 0,0 l/m 0 min 0 min 0,0 UV-I 0 W/m 0,0 km/h (0 Bft)
01.03.2014 18:36 5,6 C 2,8 C 88 % 1000,2 hPa 0,0 l/m 0 min 0 min 0,0 UV-I 0 W/m 0,0 km/h (0 Bft)
01.03.2014 18:38 5,6 C 2,8 C 88 % 1000,2 hPa 0,0 l/m 0 min 0 min 0,0 UV-I 0 W/m 0,0 km/h (0 Bft)
01.03.2014 18:40 5,4 C 2,8 C 89 % 1000,2 hPa 0,0 l/m 0 min 0 min 0,0 UV-I 0 W/m 0,0 km/h (0 Bft)
01.03.2014 18:42 5,3 C 2,8 C 89 % 1000,2 hPa 0,0 l/m 0 min 0 min 0,0 UV-I 0 W/m 0,0 km/h (0 Bft)
01.03.2014 18:44 5,2 C 2,8 C 90 % 1000,2 hPa 0,0 l/m 0 min 0 min 0,0 UV-I 0 W/m 0,0 km/h (0 Bft)
01.03.2014 18:46 5,1 C 2,8 C 90 % 1000,2 hPa 0,0 l/m 0 min 0 min 0,0 UV-I 0 W/m 0,0 km/h (0 Bft)
01.03.2014 18:48 4,9 C 2,8 C 90 % 1000,2 hPa 0,0 l/m 0 min 0 min 0,0 UV-I 0 W/m 0,0 km/h (0 Bft)
01.03.2014 18:50 4,9 C 2,2 C 90 % 1000,2 hPa 0,0 l/m 0 min 0 min 0,0 UV-I 0 W/m 0,0 km/h (0 Bft)
01.03.2014 18:52 4,8 C 2,2 C 91 % 1000,2 hPa 0,0 l/m 0 min 0 min 0,0 UV-I 0 W/m 0,0 km/h (0 Bft)
01.03.2014 18:54 4,8 C 2,2 C 91 % 1000,2 hPa 0,0 l/m 0 min 0 min 0,0 UV-I 0 W/m 0,0 km/h (0 Bft)
01.03.2014 18:56 4,7 C 2,2 C 91 % 1000,2 hPa 0,0 l/m 0 min 0 min 0,0 UV-I 0 W/m 0,0 km/h (0 Bft)
01.03.2014 18:58 4,6 C 2,2 C 92 % 1000,3 hPa 0,0 l/m 0 min 0 min 0,0 UV-I 0 W/m 0,0 km/h (0 Bft)
01.03.2014 19:00 4,6 C 2,2 C 92 % 1000,3 hPa 0,0 l/m 0 min 0 min 0,0 UV-I 0 W/m 0,0 km/h (0 Bft)
01.03.2014 19:02 4,6 C 2,2 C 92 % 1000,3 hPa 0,0 l/m 0 min 0 min 0,0 UV-I 0 W/m 0,0 km/h (0 Bft)
01.03.2014 19:04 4,5 C 2,2 C 92 % 1000,3 hPa 0,0 l/m 0 min 0 min 0,0 UV-I 0 W/m 0,0 km/h (0 Bft)
01.03.2014 19:06 4,4 C 2,2 C 92 % 1000,3 hPa 0,0 l/m 0 min 0 min 0,0 UV-I 0 W/m 0,0 km/h (0 Bft)
01.03.2014 19:08 4,4 C 2,2 C 92 % 1000,2 hPa 0,0 l/m 0 min 0 min 0,0 UV-I 0 W/m 0,0 km/h (0 Bft)
01.03.2014 19:10 4,3 C 2,2 C 92 % 1000,2 hPa 0,0 l/m 0 min 0 min 0,0 UV-I 0 W/m 0,0 km/h (0 Bft)
01.03.2014 19:12 4,3 C 2,2 C 92 % 1000,2 hPa 0,0 l/m 0 min 0 min 0,0 UV-I 0 W/m 0,0 km/h (0 Bft)
01.03.2014 19:14 4,2 C 1,7 C 92 % 1000,2 hPa 0,0 l/m 0 min 0 min 0,0 UV-I 0 W/m 0,0 km/h (0 Bft)
01.03.2014 19:16 4,2 C 1,7 C 92 % 1000,3 hPa 0,0 l/m 0 min 0 min 0,0 UV-I 0 W/m 0,0 km/h (0 Bft)
01.03.2014 19:18 4,2 C 1,7 C 93 % 1000,3 hPa 0,0 l/m 0 min 0 min 0,0 UV-I 0 W/m 0,0 km/h (0 Bft)
01.03.2014 19:20 4,2 C 1,7 C 93 % 1000,3 hPa 0,0 l/m 0 min 0 min 0,0 UV-I 0 W/m 0,0 km/h (0 Bft)
01.03.2014 19:22 4,2 C 1,7 C 93 % 1000,3 hPa 0,0 l/m 0 min 0 min 0,0 UV-I 0 W/m 0,0 km/h (0 Bft)
01.03.2014 19:24 4,1 C 1,7 C 93 % 1000,3 hPa 0,0 l/m 0 min 0 min 0,0 UV-I 0 W/m 0,0 km/h (0 Bft)
01.03.2014 19:26 4,2 C 1,7 C 93 % 1000,3 hPa 0,0 l/m 0 min 0 min 0,0 UV-I 0 W/m 0,0 km/h (0 Bft)
01.03.2014 19:28 4,1 C 1,7 C 93 % 1000,3 hPa 0,0 l/m 0 min 0 min 0,0 UV-I 0 W/m 0,0 km/h (0 Bft)
01.03.2014 19:30 4,1 C 1,7 C 93 % 1000,3 hPa 0,0 l/m 0 min 0 min 0,0 UV-I 0 W/m 0,0 km/h (0 Bft)
01.03.2014 19:32 4,1 C 1,7 C 93 % 1000,4 hPa 0,0 l/m 0 min 0 min 0,0 UV-I 0 W/m 0,0 km/h (0 Bft)
01.03.2014 19:34 4,1 C 1,7 C 93 % 1000,3 hPa 0,0 l/m 0 min 0 min 0,0 UV-I 0 W/m 0,0 km/h (0 Bft)
01.03.2014 19:36 4,0 C 1,7 C 93 % 1000,3 hPa 0,0 l/m 0 min 0 min 0,0 UV-I 0 W/m 0,0 km/h (0 Bft)
01.03.2014 19:38 3,9 C 1,7 C 94 % 1000,4 hPa 0,0 l/m 0 min 0 min 0,0 UV-I 0 W/m 0,0 km/h (0 Bft)
01.03.2014 19:40 4,0 C 1,7 C 94 % 1000,4 hPa 0,0 l/m 0 min 0 min 0,0 UV-I 0 W/m 0,0 km/h (0 Bft)
01.03.2014 19:42 4,0 C 2,2 C 94 % 1000,4 hPa 0,0 l/m 0 min 0 min 0,0 UV-I 0 W/m 0,0 km/h (0 Bft)
01.03.2014 19:44 4,0 C 2,2 C 94 % 1000,4 hPa 0,0 l/m 0 min 0 min 0,0 UV-I 0 W/m 0,0 km/h (0 Bft)
01.03.2014 19:46 4,0 C 2,2 C 94 % 1000,4 hPa 0,0 l/m 0 min 0 min 0,0 UV-I 0 W/m 0,0 km/h (0 Bft)
01.03.2014 19:48 4,0 C 2,2 C 94 % 1000,4 hPa 0,0 l/m 0 min 0 min 0,0 UV-I 0 W/m 0,0 km/h (0 Bft)
01.03.2014 19:50 4,1 C 2,2 C 94 % 1000,4 hPa 0,0 l/m 0 min 0 min 0,0 UV-I 0 W/m 0,0 km/h (0 Bft)
01.03.2014 19:52 4,1 C 2,2 C 94 % 1000,4 hPa 0,0 l/m 0 min 0 min 0,0 UV-I 0 W/m 0,0 km/h (0 Bft)
01.03.2014 19:54 4,2 C 2,2 C 94 % 1000,5 hPa 0,0 l/m 0 min 0 min 0,0 UV-I 0 W/m 0,0 km/h (0 Bft)
01.03.2014 19:56 4,2 C 2,8 C 94 % 1000,4 hPa 0,0 l/m 0 min 0 min 0,0 UV-I 0 W/m 0,0 km/h (0 Bft)
01.03.2014 19:58 4,2 C 2,8 C 95 % 1000,4 hPa 0,0 l/m 0 min 0 min 0,0 UV-I 0 W/m 0,0 km/h (0 Bft)
01.03.2014 20:00 4,2 C 2,8 C 95 % 1000,4 hPa 0,0 l/m 0 min 0 min 0,0 UV-I 0 W/m 0,0 km/h (0 Bft)
01.03.2014 20:02 4,2 C 2,8 C 95 % 1000,4 hPa 0,0 l/m 0 min 0 min 0,0 UV-I 0 W/m 0,0 km/h (0 Bft)
01.03.2014 20:04 4,2 C 2,8 C 94 % 1000,4 hPa 0,0 l/m 0 min 0 min 0,0 UV-I 0 W/m 0,0 km/h (0 Bft)
01.03.2014 20:06 4,2 C 2,8 C 95 % 1000,4 hPa 0,0 l/m 0 min 0 min 0,0 UV-I 0 W/m 0,0 km/h (0 Bft)
01.03.2014 20:08 4,3 C 2,8 C 95 % 1000,4 hPa 0,0 l/m 0 min 0 min 0,0 UV-I 0 W/m 0,0 km/h (0 Bft)
01.03.2014 20:10 4,3 C 2,8 C 95 % 1000,4 hPa 0,0 l/m 0 min 0 min 0,0 UV-I 0 W/m 0,0 km/h (0 Bft)
01.03.2014 20:12 4,3 C 2,8 C 95 % 1000,4 hPa 0,0 l/m 0 min 0 min 0,0 UV-I 0 W/m 0,0 km/h (0 Bft)
01.03.2014 20:14 4,3 C 2,8 C 95 % 1000,5 hPa 0,0 l/m 0 min 0 min 0,0 UV-I 0 W/m 0,0 km/h (0 Bft)
01.03.2014 20:16 4,4 C 2,8 C 95 % 1000,5 hPa 0,0 l/m 0 min 0 min 0,0 UV-I 0 W/m 0,0 km/h (0 Bft)
01.03.2014 20:18 4,4 C 2,8 C 95 % 1000,5 hPa 0,0 l/m 0 min 0 min 0,0 UV-I 0 W/m 0,0 km/h (0 Bft)
01.03.2014 20:20 4,4 C 2,8 C 95 % 1000,5 hPa 0,0 l/m 0 min 0 min 0,0 UV-I 0 W/m 0,0 km/h (0 Bft)
01.03.2014 20:22 4,4 C 3,3 C 95 % 1000,5 hPa 0,0 l/m 0 min 0 min 0,0 UV-I 0 W/m 0,0 km/h (0 Bft)
01.03.2014 20:24 4,5 C 3,3 C 95 % 1000,5 hPa 0,0 l/m 0 min 0 min 0,0 UV-I 0 W/m 0,0 km/h (0 Bft)
01.03.2014 20:26 4,5 C 3,3 C 95 % 1000,5 hPa 0,0 l/m 0 min 0 min 0,0 UV-I 0 W/m 0,0 km/h (0 Bft)
01.03.2014 20:28 4,5 C 3,3 C 95 % 1000,5 hPa 0,0 l/m 0 min 0 min 0,0 UV-I 0 W/m 0,0 km/h (0 Bft)
01.03.2014 20:30 4,6 C 3,3 C 95 % 1000,5 hPa 0,0 l/m 0 min 0 min 0,0 UV-I 0 W/m 0,0 km/h (0 Bft)
01.03.2014 20:32 4,6 C 3,3 C 95 % 1000,5 hPa 0,0 l/m 0 min 0 min 0,0 UV-I 0 W/m 0,0 km/h (0 Bft)
01.03.2014 20:34 4,6 C 3,3 C 95 % 1000,5 hPa 0,0 l/m 0 min 0 min 0,0 UV-I 0 W/m 0,0 km/h (0 Bft)
01.03.2014 20:36 4,6 C 3,3 C 95 % 1000,5 hPa 0,0 l/m 0 min 0 min 0,0 UV-I 0 W/m 0,0 km/h (0 Bft)
01.03.2014 20:38 4,6 C 3,3 C 95 % 1000,6 hPa 0,0 l/m 0 min 0 min 0,0 UV-I 0 W/m 0,0 km/h (0 Bft)
01.03.2014 20:40 4,7 C 3,3 C 95 % 1000,6 hPa 0,0 l/m 0 min 0 min 0,0 UV-I 0 W/m 0,0 km/h (0 Bft)
01.03.2014 20:42 4,7 C 3,3 C 95 % 1000,5 hPa 0,0 l/m 0 min 0 min 0,0 UV-I 0 W/m 0,0 km/h (0 Bft)
01.03.2014 20:44 4,7 C 3,3 C 95 % 1000,6 hPa 0,0 l/m 0 min 0 min 0,0 UV-I 0 W/m 0,0 km/h (0 Bft)
01.03.2014 20:46 4,7 C 3,3 C 95 % 1000,6 hPa 0,0 l/m 0 min 0 min 0,0 UV-I 0 W/m 0,0 km/h (0 Bft)
01.03.2014 20:48 4,6 C 3,3 C 95 % 1000,6 hPa 0,0 l/m 0 min 0 min 0,0 UV-I 0 W/m 0,0 km/h (0 Bft)
01.03.2014 20:50 4,7 C 3,3 C 95 % 1000,5 hPa 0,0 l/m 0 min 0 min 0,0 UV-I 0 W/m 0,0 km/h (0 Bft)
01.03.2014 20:52 4,7 C 3,3 C 95 % 1000,6 hPa 0,0 l/m 0 min 0 min 0,0 UV-I 0 W/m 2,6 km/h (1 Bft)
01.03.2014 20:54 4,7 C 3,3 C 95 % 1000,7 hPa 0,0 l/m 0 min 0 min 0,0 UV-I 0 W/m 5,1 km/h (1 Bft)
01.03.2014 20:56 4,7 C 3,3 C 95 % 1000,6 hPa 0,0 l/m 0 min 0 min 0,0 UV-I 0 W/m 0,0 km/h (0 Bft)
01.03.2014 20:58 4,8 C 3,3 C 94 % 1000,6 hPa 0,0 l/m 0 min 0 min 0,0 UV-I 0 W/m 0,0 km/h (0 Bft)
01.03.2014 21:00 4,8 C 3,3 C 94 % 1000,6 hPa 0,0 l/m 0 min 0 min 0,0 UV-I 0 W/m 0,0 km/h (0 Bft)
01.03.2014 21:02 4,8 C 3,3 C 94 % 1000,6 hPa 0,0 l/m 0 min 0 min 0,0 UV-I 0 W/m 0,0 km/h (0 Bft)
01.03.2014 21:04 4,8 C 3,3 C 94 % 1000,7 hPa 0,0 l/m 0 min 0 min 0,0 UV-I 0 W/m 0,0 km/h (0 Bft)
01.03.2014 21:06 4,8 C 3,3 C 94 % 1000,7 hPa 0,0 l/m 0 min 0 min 0,0 UV-I 0 W/m 0,0 km/h (0 Bft)
01.03.2014 21:08 4,8 C 3,3 C 94 % 1000,7 hPa 0,0 l/m 0 min 0 min 0,0 UV-I 0 W/m 0,0 km/h (0 Bft)
01.03.2014 21:10 4,9 C 3,3 C 93 % 1000,7 hPa 0,0 l/m 0 min 0 min 0,0 UV-I 0 W/m 0,0 km/h (0 Bft)
01.03.2014 21:12 4,9 C 3,3 C 93 % 1000,7 hPa 0,0 l/m 0 min 0 min 0,0 UV-I 0 W/m 0,0 km/h (0 Bft)
01.03.2014 21:14 4,9 C 3,3 C 93 % 1000,7 hPa 0,0 l/m 0 min 0 min 0,0 UV-I 0 W/m 0,0 km/h (0 Bft)
01.03.2014 21:16 4,9 C 3,3 C 93 % 1000,7 hPa 0,0 l/m 0 min 0 min 0,0 UV-I 0 W/m 0,0 km/h (0 Bft)
01.03.2014 21:18 4,9 C 3,3 C 93 % 1000,7 hPa 0,0 l/m 0 min 0 min 0,0 UV-I 0 W/m 0,0 km/h (0 Bft)
01.03.2014 21:20 4,9 C 3,3 C 93 % 1000,7 hPa 0,0 l/m 0 min 0 min 0,0 UV-I 0 W/m 0,0 km/h (0 Bft)
01.03.2014 21:22 5,0 C 3,3 C 93 % 1000,7 hPa 0,0 l/m 0 min 0 min 0,0 UV-I 0 W/m 0,0 km/h (0 Bft)
01.03.2014 21:24 5,0 C 3,3 C 93 % 1000,7 hPa 0,0 l/m 0 min 0 min 0,0 UV-I 0 W/m 0,0 km/h (0 Bft)
01.03.2014 21:26 5,0 C 3,3 C 92 % 1000,7 hPa 0,0 l/m 0 min 0 min 0,0 UV-I 0 W/m 0,0 km/h (0 Bft)
01.03.2014 21:28 5,1 C 3,3 C 92 % 1000,7 hPa 0,0 l/m 0 min 0 min 0,0 UV-I 0 W/m 0,0 km/h (0 Bft)
01.03.2014 21:30 5,1 C 3,3 C 92 % 1000,7 hPa 0,0 l/m 0 min 0 min 0,0 UV-I 0 W/m 0,0 km/h (0 Bft)
01.03.2014 21:32 5,1 C 3,3 C 92 % 1000,7 hPa 0,0 l/m 0 min 0 min 0,0 UV-I 0 W/m 0,0 km/h (0 Bft)
01.03.2014 21:34 5,1 C 3,3 C 92 % 1000,7 hPa 0,0 l/m 0 min 0 min 0,0 UV-I 0 W/m 0,0 km/h (0 Bft)
01.03.2014 21:36 5,1 C 3,3 C 92 % 1000,8 hPa 0,0 l/m 0 min 0 min 0,0 UV-I 0 W/m 0,0 km/h (0 Bft)
01.03.2014 21:38 5,2 C 3,3 C 92 % 1000,8 hPa 0,0 l/m 0 min 0 min 0,0 UV-I 0 W/m 0,0 km/h (0 Bft)
01.03.2014 21:40 5,2 C 3,3 C 92 % 1000,7 hPa 0,0 l/m 0 min 0 min 0,0 UV-I 0 W/m 0,0 km/h (0 Bft)
01.03.2014 21:42 5,2 C 3,3 C 91 % 1000,7 hPa 0,0 l/m 0 min 0 min 0,0 UV-I 0 W/m 0,0 km/h (0 Bft)
01.03.2014 21:44 5,2 C 3,3 C 91 % 1000,8 hPa 0,0 l/m 0 min 0 min 0,0 UV-I 0 W/m 0,0 km/h (0 Bft)
01.03.2014 21:46 5,2 C 3,3 C 91 % 1000,8 hPa 0,0 l/m 0 min 0 min 0,0 UV-I 0 W/m 0,0 km/h (0 Bft)
01.03.2014 21:48 5,3 C 3,3 C 91 % 1000,8 hPa 0,0 l/m 0 min 0 min 0,0 UV-I 0 W/m 0,0 km/h (0 Bft)
01.03.2014 21:50 5,3 C 3,3 C 91 % 1000,8 hPa 0,0 l/m 0 min 0 min 0,0 UV-I 0 W/m 0,0 km/h (0 Bft)
01.03.2014 21:52 5,3 C 3,3 C 91 % 1000,8 hPa 0,0 l/m 0 min 0 min 0,0 UV-I 0 W/m 0,0 km/h (0 Bft)
01.03.2014 21:54 5,3 C 3,3 C 91 % 1000,8 hPa 0,0 l/m 0 min 0 min 0,0 UV-I 0 W/m 0,0 km/h (0 Bft)
01.03.2014 21:56 5,3 C 3,3 C 91 % 1000,9 hPa 0,0 l/m 0 min 0 min 0,0 UV-I 0 W/m 0,0 km/h (0 Bft)
01.03.2014 21:58 5,3 C 3,3 C 91 % 1000,9 hPa 0,0 l/m 0 min 0 min 0,0 UV-I 0 W/m 0,0 km/h (0 Bft)
01.03.2014 22:00 5,3 C 3,3 C 90 % 1000,9 hPa 0,0 l/m 0 min 0 min 0,0 UV-I 0 W/m 0,0 km/h (0 Bft)
01.03.2014 22:02 5,3 C 3,3 C 90 % 1000,8 hPa 0,0 l/m 0 min 0 min 0,0 UV-I 0 W/m 0,0 km/h (0 Bft)
01.03.2014 22:04 5,3 C 3,3 C 90 % 1000,8 hPa 0,0 l/m 0 min 0 min 0,0 UV-I 0 W/m 0,0 km/h (0 Bft)
01.03.2014 22:06 5,3 C 3,3 C 90 % 1000,9 hPa 0,0 l/m 0 min 0 min 0,0 UV-I 0 W/m 0,0 km/h (0 Bft)
01.03.2014 22:08 5,3 C 3,3 C 90 % 1000,8 hPa 0,0 l/m 0 min 0 min 0,0 UV-I 0 W/m 0,0 km/h (0 Bft)
01.03.2014 22:10 5,3 C 3,3 C 90 % 1000,8 hPa 0,0 l/m 0 min 0 min 0,0 UV-I 0 W/m 0,0 km/h (0 Bft)
01.03.2014 22:12 5,3 C 3,3 C 90 % 1000,7 hPa 0,0 l/m 0 min 0 min 0,0 UV-I 0 W/m 0,0 km/h (0 Bft)
01.03.2014 22:14 5,3 C 3,3 C 90 % 1000,8 hPa 0,0 l/m 0 min 0 min 0,0 UV-I 0 W/m 0,0 km/h (0 Bft)
01.03.2014 22:16 5,2 C 3,3 C 90 % 1000,8 hPa 0,0 l/m 0 min 0 min 0,0 UV-I 0 W/m 0,0 km/h (0 Bft)
01.03.2014 22:18 5,2 C 3,3 C 90 % 1000,8 hPa 0,0 l/m 0 min 0 min 0,0 UV-I 0 W/m 0,0 km/h (0 Bft)
01.03.2014 22:20 5,2 C 3,3 C 90 % 1000,8 hPa 0,0 l/m 0 min 0 min 0,0 UV-I 0 W/m 0,0 km/h (0 Bft)
01.03.2014 22:22 5,2 C 3,3 C 90 % 1000,9 hPa 0,0 l/m 0 min 0 min 0,0 UV-I 0 W/m 0,0 km/h (0 Bft)
01.03.2014 22:24 5,1 C 2,8 C 91 % 1000,9 hPa 0,0 l/m 0 min 0 min 0,0 UV-I 0 W/m 0,0 km/h (0 Bft)
01.03.2014 22:26 5,1 C 2,8 C 91 % 1000,9 hPa 0,0 l/m 0 min 0 min 0,0 UV-I 0 W/m 0,0 km/h (0 Bft)
01.03.2014 22:28 5,0 C 2,8 C 91 % 1000,9 hPa 0,0 l/m 0 min 0 min 0,0 UV-I 0 W/m 0,0 km/h (0 Bft)
01.03.2014 22:30 5,0 C 2,8 C 91 % 1001,0 hPa 0,0 l/m 0 min 0 min 0,0 UV-I 0 W/m 0,0 km/h (0 Bft)
01.03.2014 22:32 5,0 C 2,8 C 91 % 1001,0 hPa 0,0 l/m 0 min 0 min 0,0 UV-I 0 W/m 0,0 km/h (0 Bft)
01.03.2014 22:34 4,9 C 2,8 C 91 % 1001,1 hPa 0,0 l/m 0 min 0 min 0,0 UV-I 0 W/m 0,0 km/h (0 Bft)
01.03.2014 22:36 4,9 C 2,2 C 91 % 1001,1 hPa 0,0 l/m 0 min 0 min 0,0 UV-I 0 W/m 0,0 km/h (0 Bft)
01.03.2014 22:38 4,8 C 2,2 C 91 % 1001,0 hPa 0,0 l/m 0 min 0 min 0,0 UV-I 0 W/m 0,0 km/h (0 Bft)
01.03.2014 22:40 4,8 C 2,8 C 91 % 1001,1 hPa 0,0 l/m 0 min 0 min 0,0 UV-I 0 W/m 0,0 km/h (0 Bft)
01.03.2014 22:42 4,7 C 2,8 C 91 % 1001,2 hPa 0,0 l/m 0 min 0 min 0,0 UV-I 0 W/m 0,0 km/h (0 Bft)
01.03.2014 22:44 4,7 C 2,8 C 91 % 1001,2 hPa 0,0 l/m 0 min 0 min 0,0 UV-I 0 W/m 0,0 km/h (0 Bft)
01.03.2014 22:46 4,7 C 2,8 C 91 % 1001,3 hPa 0,0 l/m 0 min 0 min 0,0 UV-I 0 W/m 0,0 km/h (0 Bft)
01.03.2014 22:48 4,7 C 2,8 C 91 % 1001,2 hPa 0,0 l/m 0 min 0 min 0,0 UV-I 0 W/m 0,0 km/h (0 Bft)
01.03.2014 22:50 4,7 C 2,8 C 92 % 1001,2 hPa 0,0 l/m 0 min 0 min 0,0 UV-I 0 W/m 0,0 km/h (0 Bft)
01.03.2014 22:52 4,6 C 2,2 C 92 % 1001,3 hPa 0,0 l/m 0 min 0 min 0,0 UV-I 0 W/m 0,0 km/h (0 Bft)
01.03.2014 22:54 4,6 C 2,2 C 92 % 1001,3 hPa 0,0 l/m 0 min 0 min 0,0 UV-I 0 W/m 0,0 km/h (0 Bft)
01.03.2014 22:56 4,6 C 2,2 C 92 % 1001,3 hPa 0,0 l/m 0 min 0 min 0,0 UV-I 0 W/m 0,0 km/h (0 Bft)
01.03.2014 22:58 4,6 C 2,2 C 92 % 1001,4 hPa 0,0 l/m 0 min 0 min 0,0 UV-I 0 W/m 0,0 km/h (0 Bft)
01.03.2014 23:00 4,6 C 2,2 C 92 % 1001,3 hPa 0,0 l/m 0 min 0 min 0,0 UV-I 0 W/m 0,0 km/h (0 Bft)
01.03.2014 23:02 4,6 C 2,8 C 92 % 1001,4 hPa 0,0 l/m 0 min 0 min 0,0 UV-I 0 W/m 0,0 km/h (0 Bft)
01.03.2014 23:04 4,6 C 2,8 C 92 % 1001,4 hPa 0,0 l/m 0 min 0 min 0,0 UV-I 0 W/m 2,6 km/h (1 Bft)
01.03.2014 23:06 4,6 C 2,8 C 92 % 1001,4 hPa 0,0 l/m 0 min 0 min 0,0 UV-I 0 W/m 0,0 km/h (0 Bft)
01.03.2014 23:08 4,6 C 2,8 C 92 % 1001,3 hPa 0,0 l/m 0 min 0 min 0,0 UV-I 0 W/m 0,0 km/h (0 Bft)
01.03.2014 23:10 4,7 C 2,8 C 92 % 1001,4 hPa 0,0 l/m 0 min 0 min 0,0 UV-I 0 W/m 0,0 km/h (0 Bft)
01.03.2014 23:12 4,7 C 3,3 C 92 % 1001,3 hPa 0,0 l/m 0 min 0 min 0,0 UV-I 0 W/m 0,0 km/h (0 Bft)
01.03.2014 23:14 4,7 C 3,3 C 92 % 1001,3 hPa 0,0 l/m 0 min 0 min 0,0 UV-I 0 W/m 10,3 km/h (2 Bft)
01.03.2014 23:16 4,7 C 3,3 C 92 % 1001,3 hPa 0,0 l/m 0 min 0 min 0,0 UV-I 0 W/m 5,1 km/h (1 Bft)
01.03.2014 23:18 4,8 C 3,3 C 92 % 1001,3 hPa 0,0 l/m 0 min 0 min 0,0 UV-I 0 W/m 2,6 km/h (1 Bft)
01.03.2014 23:20 4,8 C 3,3 C 92 % 1001,3 hPa 0,0 l/m 0 min 0 min 0,0 UV-I 0 W/m 0,0 km/h (0 Bft)
01.03.2014 23:22 4,8 C 3,3 C 92 % 1001,3 hPa 0,0 l/m 0 min 0 min 0,0 UV-I 0 W/m 0,0 km/h (0 Bft)
01.03.2014 23:24 4,8 C 3,3 C 92 % 1001,4 hPa 0,0 l/m 0 min 0 min 0,0 UV-I 0 W/m 0,0 km/h (0 Bft)
01.03.2014 23:26 4,9 C 3,3 C 92 % 1001,4 hPa 0,0 l/m 0 min 0 min 0,0 UV-I 0 W/m 0,0 km/h (0 Bft)
01.03.2014 23:28 4,9 C 3,3 C 92 % 1001,4 hPa 0,0 l/m 0 min 0 min 0,0 UV-I 0 W/m 0,0 km/h (0 Bft)
01.03.2014 23:30 4,9 C 3,3 C 92 % 1001,3 hPa 0,0 l/m 0 min 0 min 0,0 UV-I 0 W/m 0,0 km/h (0 Bft)
01.03.2014 23:32 4,9 C 3,3 C 92 % 1001,2 hPa 0,0 l/m 0 min 0 min 0,0 UV-I 0 W/m 0,0 km/h (0 Bft)
01.03.2014 23:34 4,9 C 3,3 C 92 % 1001,3 hPa 0,0 l/m 0 min 0 min 0,0 UV-I 0 W/m 0,0 km/h (0 Bft)
01.03.2014 23:36 4,9 C 3,3 C 92 % 1001,3 hPa 0,0 l/m 0 min 0 min 0,0 UV-I 0 W/m 0,0 km/h (0 Bft)
01.03.2014 23:38 4,9 C 3,3 C 92 % 1001,2 hPa 0,0 l/m 0 min 0 min 0,0 UV-I 0 W/m 0,0 km/h (0 Bft)
01.03.2014 23:40 4,9 C 3,3 C 92 % 1001,2 hPa 0,0 l/m 0 min 0 min 0,0 UV-I 0 W/m 0,0 km/h (0 Bft)
01.03.2014 23:42 4,9 C 3,3 C 92 % 1001,2 hPa 0,0 l/m 0 min 0 min 0,0 UV-I 0 W/m 0,0 km/h (0 Bft)
01.03.2014 23:44 4,9 C 3,3 C 92 % 1001,2 hPa 0,0 l/m 0 min 0 min 0,0 UV-I 0 W/m 0,0 km/h (0 Bft)
01.03.2014 23:46 4,9 C 3,3 C 92 % 1001,3 hPa 0,0 l/m 0 min 0 min 0,0 UV-I 0 W/m 0,0 km/h (0 Bft)
01.03.2014 23:48 4,9 C 3,3 C 92 % 1001,2 hPa 0,0 l/m 0 min 0 min 0,0 UV-I 0 W/m 0,0 km/h (0 Bft)
01.03.2014 23:50 4,9 C 3,3 C 92 % 1001,2 hPa 0,0 l/m 0 min 0 min 0,0 UV-I 0 W/m 0,0 km/h (0 Bft)
01.03.2014 23:52 4,9 C 3,3 C 92 % 1001,2 hPa 0,0 l/m 0 min 0 min 0,0 UV-I 0 W/m 5,1 km/h (1 Bft)
01.03.2014 23:54 4,9 C 3,3 C 92 % 1001,2 hPa 0,0 l/m 0 min 0 min 0,0 UV-I 0 W/m 7,7 km/h (2 Bft)
01.03.2014 23:56 4,9 C 3,3 C 92 % 1001,2 hPa 0,0 l/m 0 min 0 min 0,0 UV-I 0 W/m 7,7 km/h (2 Bft)
01.03.2014 23:58 4,9 C 3,3 C 92 % 1001,2 hPa 0,0 l/m 0 min 0 min 0,0 UV-I 0 W/m 5,1 km/h (1 Bft)
_ Min-Zeit 08:22 06:56 14:22 00:02 - - - - - 00:00
Minimum _ 1,2 C -0,6 C 70 % 999,7 hPa - - - - - 0,0 km/h (0 Bft)
_ Max-Zeit 14:20 14:06 09:06 09:38 15:26 09:26 14:52 13:54 14:02 10:00
Maximum _ 10,8 C 10,6 C 96 % 1001,6 hPa 0,8 l/m 2 min 2 min 1,0 UV-I 712 W/m 28,3 km/h
SO (4 Bft)
Durchschnitt _ 5,3 C 3,9 C 88 % 1000,6 hPa #2,2 l/m #3:36 h #46 min. 0,7 UV-I 178 W/m 4,7 km/h (1 Bft)
© 2014 W. Hausmann